Observation data for White River Lake on 01/17/2021      Previous  Date  Next       Current Mesonet Observations  Soil Data  Daily Summary Page  Observations in Plain Language
KWVS 170600Z 30005KT 04/M07 A3007 RMK A01 T00421068  RH  045%=      5-min Rain = 0
KWVS 170601Z 30005KT 04/M07 A3007 RMK A01 T00401067  RH  046%=      5-min Rain = 0
KWVS 170602Z 29006KT 04/M07 A3007 RMK A01 T00381066  RH  047%=      5-min Rain = 0
KWVS 170603Z 29006KT 04/M07 A3007 RMK A01 T00371066  RH  047%=      5-min Rain = 0
KWVS 170604Z 29005KT 04/M07 A3007 RMK A01 T00371066  RH  047%=      5-min Rain = 0
KWVS 170605Z 29005KT 04/M07 A3007 RMK A01 T00361066  RH  047%=      5-min Rain = 0
KWVS 170606Z 30005KT 04/M07 A3007 RMK A01 T00361066  RH  047%=      5-min Rain = 0
KWVS 170607Z 31004KT 04/M07 A3007 RMK A01 T00351066  RH  047%=      5-min Rain = 0
KWVS 170608Z 32005KT 04/M07 A3007 RMK A01 T00351065  RH  048%=      5-min Rain = 0
KWVS 170609Z 32006KT 03/M07 A3007 RMK A01 T00341065  RH  048%=      5-min Rain = 0
KWVS 170610Z 32007KT 03/M06 A3007 RMK A01 T00311064  RH  050%=      5-min Rain = 0
KWVS 170611Z 32007KT 03/M06 A3007 RMK A01 T00291063  RH  051%=      5-min Rain = 0
KWVS 170612Z 34005KT 03/M06 A3007 RMK A01 T00291063  RH  051%=      5-min Rain = 0
KWVS 170613Z 34005KT 03/M06 A3007 RMK A01 T00281062  RH  051%=      5-min Rain = 0
KWVS 170614Z 33005KT 03/M06 A3007 RMK A01 T00281063  RH  051%=      5-min Rain = 0
KWVS 170615Z 32005KT 03/M07 A3007 RMK A01 T00301068  RH  048%=      5-min Rain = 0
KWVS 170616Z 32006KT 04/M07 A3007 RMK A01 T00351071  RH  046%=      5-min Rain = 0
KWVS 170617Z 34006KT 04/M07 A3007 RMK A01 T00381072  RH  044%=      5-min Rain = 0
KWVS 170618Z 35006KT 04/M07 A3008 RMK A01 T00371068  RH  046%=      5-min Rain = 0
KWVS 170619Z 34006KT 03/M07 A3008 RMK A01 T00301066  RH  050%=      5-min Rain = 0
KWVS 170620Z 33006KT 02/M06 A3008 RMK A01 T00241064  RH  052%=      5-min Rain = 0
KWVS 170621Z 32006KT 02/M06 A3008 RMK A01 T00231064  RH  053%=      5-min Rain = 0
KWVS 170622Z 32006KT 02/M07 A3008 RMK A01 T00231065  RH  052%=      5-min Rain = 0
KWVS 170623Z 31005KT 02/M07 A3008 RMK A01 T00241066  RH  052%=      5-min Rain = 0
KWVS 170624Z 31005KT 03/M07 A3008 RMK A01 T00261067  RH  051%=      5-min Rain = 0
KWVS 170625Z 30005KT 03/M07 A3008 RMK A01 T00281068  RH  049%=      5-min Rain = 0
KWVS 170626Z 30005KT 03/M07 A3008 RMK A01 T00291068  RH  049%=      5-min Rain = 0
KWVS 170627Z 30004KT 03/M07 A3008 RMK A01 T00301069  RH  048%=      5-min Rain = 0
KWVS 170628Z 33005KT 03/M07 A3008 RMK A01 T00301068  RH  048%=      5-min Rain = 0
KWVS 170629Z 33005KT 03/M07 A3008 RMK A01 T00301067  RH  049%=      5-min Rain = 0
KWVS 170630Z 32004KT 03/M07 A3008 RMK A01 T00291067  RH  049%=      5-min Rain = 0
KWVS 170631Z 32004KT 03/M07 A3008 RMK A01 T00271067  RH  050%=      5-min Rain = 0
KWVS 170632Z 32005KT 03/M07 A3008 RMK A01 T00271067  RH  050%=      5-min Rain = 0
KWVS 170633Z 31005KT 03/M07 A3008 RMK A01 T00271067  RH  050%=      5-min Rain = 0
KWVS 170634Z 32005KT 03/M07 A3008 RMK A01 T00271067  RH  050%=      5-min Rain = 0
KWVS 170635Z 32005KT 03/M07 A3008 RMK A01 T00271067  RH  050%=      5-min Rain = 0
KWVS 170636Z 33006KT 03/M07 A3008 RMK A01 T00271066  RH  050%=      5-min Rain = 0
KWVS 170637Z 33005KT 03/M07 A3008 RMK A01 T00261066  RH  051%=      5-min Rain = 0
KWVS 170638Z 32005KT 03/M07 A3008 RMK A01 T00251066  RH  051%=      5-min Rain = 0
KWVS 170639Z 32005KT 03/M07 A3008 RMK A01 T00261067  RH  051%=      5-min Rain = 0
KWVS 170640Z 32006KT 03/M07 A3008 RMK A01 T00271068  RH  050%=      5-min Rain = 0
KWVS 170641Z 32005KT 03/M07 A3008 RMK A01 T00281068  RH  049%=      5-min Rain = 0
KWVS 170642Z 33007KT 03/M07 A3008 RMK A01 T00291069  RH  048%=      5-min Rain = 0
KWVS 170643Z 32007KT 03/M07 A3008 RMK A01 T00311071  RH  047%=      5-min Rain = 0
KWVS 170644Z 35005KT 03/M07 A3008 RMK A01 T00341070  RH  047%=      5-min Rain = 0
KWVS 170645Z 33006KT 03/M07 A3008 RMK A01 T00321066  RH  049%=      5-min Rain = 0
KWVS 170646Z 32006KT 03/M07 A3009 RMK A01 T00291066  RH  050%=      5-min Rain = 0
KWVS 170647Z 33007KT 03/M06 A3009 RMK A01 T00281064  RH  051%=      5-min Rain = 0
KWVS 170648Z 33007KT 03/M06 A3009 RMK A01 T00261063  RH  052%=      5-min Rain = 0
KWVS 170649Z 32007KT 02/M06 A3009 RMK A01 T00241062  RH  053%=      5-min Rain = 0
KWVS 170650Z 33006KT 02/M06 A3009 RMK A01 T00231061  RH  054%=      5-min Rain = 0
KWVS 170651Z 33007KT 02/M06 A3009 RMK A01 T00231060  RH  054%=      5-min Rain = 0
KWVS 170652Z 33007KT 02/M06 A3009 RMK A01 T00221060  RH  055%=      5-min Rain = 0
KWVS 170653Z 33008KT 02/M06 A3009 RMK A01 T00211058  RH  056%=      5-min Rain = 0
KWVS 170654Z 32009KT 02/M06 A3009 RMK A01 T00211059  RH  056%=      5-min Rain = 0
KWVS 170655Z 32009KT 02/M06 A3009 RMK A01 T00241061  RH  054%=      5-min Rain = 0
KWVS 170656Z 32008KT 03/M06 A3009 RMK A01 T00271060  RH  053%=      5-min Rain = 0
KWVS 170657Z 32008KT 03/M06 A3009 RMK A01 T00271060  RH  053%=      5-min Rain = 0
KWVS 170658Z 32008KT 03/M06 A3009 RMK A01 T00271059  RH  053%=      5-min Rain = 0
KWVS 170659Z 32008KT 03/M06 A3009 RMK A01 T00261059  RH  054%=      5-min Rain = 0
KWVS 170700Z 32007KT 03/M06 A3009 RMK A01 T00251058  RH  054%=      5-min Rain = 0
KWVS 170701Z 32007KT 02/M06 A3009 RMK A01 T00241058  RH  055%=      5-min Rain = 0
KWVS 170702Z 32007KT 02/M06 A3009 RMK A01 T00241058  RH  054%=      5-min Rain = 0
KWVS 170703Z 32006KT 02/M06 A3009 RMK A01 T00241059  RH  054%=      5-min Rain = 0
KWVS 170704Z 32006KT 03/M06 A3009 RMK A01 T00251059  RH  054%=      5-min Rain = 0
KWVS 170705Z 32006KT 03/M06 A3009 RMK A01 T00251060  RH  053%=      5-min Rain = 0
KWVS 170706Z 32007KT 03/M06 A3009 RMK A01 T00261060  RH  053%=      5-min Rain = 0
KWVS 170707Z 32007KT 03/M06 A3009 RMK A01 T00271061  RH  052%=      5-min Rain = 0
KWVS 170708Z 32007KT 03/M06 A3009 RMK A01 T00271061  RH  052%=      5-min Rain = 0
KWVS 170709Z 32007KT 03/M06 A3009 RMK A01 T00281062  RH  052%=      5-min Rain = 0
KWVS 170710Z 32008KT 03/M06 A3009 RMK A01 T00281062  RH  051%=      5-min Rain = 0
KWVS 170711Z 32008KT 03/M06 A3009 RMK A01 T00291063  RH  051%=      5-min Rain = 0
KWVS 170712Z 32008KT 03/M06 A3009 RMK A01 T00291063  RH  051%=      5-min Rain = 0
KWVS 170713Z 32009KT 03/M06 A3009 RMK A01 T00291063  RH  051%=      5-min Rain = 0
KWVS 170714Z 32009KT 03/M06 A3009 RMK A01 T00291064  RH  050%=      5-min Rain = 0
KWVS 170715Z 32009KT 03/M07 A3009 RMK A01 T00301065  RH  050%=      5-min Rain = 0
KWVS 170716Z 32008KT 03/M07 A3009 RMK A01 T00311065  RH  049%=      5-min Rain = 0
KWVS 170717Z 33007KT 03/M06 A3009 RMK A01 T00311064  RH  050%=      5-min Rain = 0
KWVS 170718Z 33008KT 03/M06 A3009 RMK A01 T00291063  RH  051%=      5-min Rain = 0
KWVS 170719Z 34010KT 03/M06 A3009 RMK A01 T00261062  RH  052%=      5-min Rain = 0
KWVS 170720Z 34011KT 02/M06 A3009 RMK A01 T00241060  RH  054%=      5-min Rain = 0
KWVS 170721Z 35012KT 02/M06 A3009 RMK A01 T00211059  RH  055%=      5-min Rain = 0
KWVS 170722Z 34013KT 02/M06 A3009 RMK A01 T00201059  RH  056%=      5-min Rain = 0
KWVS 170723Z 33013KT 02/M06 A3009 RMK A01 T00211061  RH  055%=      5-min Rain = 0
KWVS 170724Z 33012KT 02/M06 A3009 RMK A01 T00231061  RH  054%=      5-min Rain = 0
KWVS 170725Z 34011KT 02/M06 A3009 RMK A01 T00231060  RH  054%=      5-min Rain = 0
KWVS 170726Z 34011KT 02/M06 A3009 RMK A01 T00221059  RH  055%=      5-min Rain = 0
KWVS 170727Z 34011KT 02/M06 A3009 RMK A01 T00211059  RH  055%=      5-min Rain = 0
KWVS 170728Z 35011KT 02/M06 A3009 RMK A01 T00191058  RH  057%=      5-min Rain = 0
KWVS 170729Z 35012KT 02/M06 A3009 RMK A01 T00181058  RH  057%=      5-min Rain = 0
KWVS 170730Z 35011KT 02/M06 A3009 RMK A01 T00171058  RH  058%=      5-min Rain = 0
KWVS 170731Z 35011KT 02/M06 A3009 RMK A01 T00171057  RH  058%=      5-min Rain = 0
KWVS 170732Z 35012KT 02/M06 A3009 RMK A01 T00171056  RH  058%=      5-min Rain = 0
KWVS 170733Z 34012KT 02/M06 A3009 RMK A01 T00161056  RH  059%=      5-min Rain = 0
KWVS 170734Z 34011KT 02/M06 A3009 RMK A01 T00161056  RH  059%=      5-min Rain = 0
KWVS 170735Z 34011KT 02/M06 A3009 RMK A01 T00161055  RH  059%=      5-min Rain = 0
KWVS 170736Z 34010KT 02/M06 A3009 RMK A01 T00161055  RH  059%=      5-min Rain = 0
KWVS 170737Z 34010KT 02/M05 A3009 RMK A01 T00151054  RH  060%=      5-min Rain = 0
KWVS 170738Z 34010KT 01/M05 A3009 RMK A01 T00141054  RH  060%=      5-min Rain = 0
KWVS 170739Z 34009KT 01/M05 A3009 RMK A01 T00131054  RH  061%=      5-min Rain = 0
KWVS 170740Z 34010KT 01/M05 A3009 RMK A01 T00131054  RH  061%=      5-min Rain = 0
KWVS 170741Z 34010KT 01/M05 A3009 RMK A01 T00131054  RH  061%=      5-min Rain = 0
KWVS 170742Z 34010KT 01/M05 A3009 RMK A01 T00131054  RH  061%=      5-min Rain = 0
KWVS 170743Z 34010KT 01/M05 A3009 RMK A01 T00121054  RH  061%=      5-min Rain = 0
KWVS 170744Z 34010KT 01/M05 A3009 RMK A01 T00121053  RH  062%=      5-min Rain = 0
KWVS 170745Z 34010KT 01/M05 A3009 RMK A01 T00121053  RH  062%=      5-min Rain = 0
KWVS 170746Z 34010KT 01/M05 A3009 RMK A01 T00121054  RH  062%=      5-min Rain = 0
KWVS 170747Z 34011KT 01/M05 A3009 RMK A01 T00121054  RH  061%=      5-min Rain = 0
KWVS 170748Z 34010KT 01/M06 A3009 RMK A01 T00131055  RH  060%=      5-min Rain = 0
KWVS 170749Z 34010KT 02/M06 A3009 RMK A01 T00151056  RH  060%=      5-min Rain = 0
KWVS 170750Z 34010KT 02/M06 A3009 RMK A01 T00151055  RH  059%=      5-min Rain = 0
KWVS 170751Z 33010KT 02/M06 A3009 RMK A01 T00151055  RH  060%=      5-min Rain = 0
KWVS 170752Z 33010KT 01/M06 A3009 RMK A01 T00141056  RH  060%=      5-min Rain = 0
KWVS 170753Z 33010KT 01/M06 A3009 RMK A01 T00141056  RH  060%=      5-min Rain = 0
KWVS 170754Z 33010KT 01/M06 A3009 RMK A01 T00141056  RH  060%=      5-min Rain = 0
KWVS 170755Z 33010KT 01/M06 A301 RMK A01 T00141056  RH  060%=      5-min Rain = 0
KWVS 170756Z 33010KT 01/M06 A301 RMK A01 T00141056  RH  060%=      5-min Rain = 0
KWVS 170757Z 33010KT 01/M06 A301 RMK A01 T00131056  RH  060%=      5-min Rain = 0
KWVS 170758Z 33010KT 01/M06 A301 RMK A01 T00141057  RH  059%=      5-min Rain = 0
KWVS 170759Z 33011KT 02/M06 A301 RMK A01 T00151057  RH  059%=      5-min Rain = 0
KWVS 170800Z 33011KT 02/M06 A301 RMK A01 T00161057  RH  059%=      5-min Rain = 0
KWVS 170801Z 33011KT 02/M06 A301 RMK A01 T00161057  RH  058%=      5-min Rain = 0
KWVS 170802Z 33011KT 02/M06 A301 RMK A01 T00171057  RH  058%=      5-min Rain = 0
KWVS 170803Z 33010KT 02/M06 A301 RMK A01 T00171057  RH  058%=      5-min Rain = 0
KWVS 170804Z 33010KT 02/M06 A301 RMK A01 T00171057  RH  058%=      5-min Rain = 0
KWVS 170805Z 33011KT 02/M06 A301 RMK A01 T00181057  RH  058%=      5-min Rain = 0
KWVS 170806Z 33011KT 02/M06 A301 RMK A01 T00181057  RH  057%=      5-min Rain = 0
KWVS 170807Z 33012KT 02/M06 A301 RMK A01 T00191058  RH  057%=      5-min Rain = 0
KWVS 170808Z 33011KT 02/M06 A301 RMK A01 T00201058  RH  056%=      5-min Rain = 0
KWVS 170809Z 33011KT 02/M06 A301 RMK A01 T00211058  RH  056%=      5-min Rain = 0
KWVS 170810Z 33011KT 02/M06 A301 RMK A01 T00211058  RH  056%=      5-min Rain = 0
KWVS 170811Z 33010KT 02/M06 A301 RMK A01 T00211059  RH  056%=      5-min Rain = 0
KWVS 170812Z 33010KT 02/M06 A301 RMK A01 T00211059  RH  055%=      5-min Rain = 0
KWVS 170813Z 33010KT 02/M06 A301 RMK A01 T00211059  RH  055%=      5-min Rain = 0
KWVS 170814Z 33009KT 02/M06 A301 RMK A01 T00211059  RH  056%=      5-min Rain = 0
KWVS 170815Z 33010KT 02/M06 A301 RMK A01 T00211059  RH  056%=      5-min Rain = 0
KWVS 170816Z 33010KT 02/M06 A301 RMK A01 T00201059  RH  056%=      5-min Rain = 0
KWVS 170817Z 33010KT 02/M06 A301 RMK A01 T00201059  RH  056%=      5-min Rain = 0
KWVS 170818Z 33010KT 02/M06 A301 RMK A01 T00201060  RH  056%=      5-min Rain = 0
KWVS 170819Z 33010KT 02/M06 A301 RMK A01 T00201060  RH  055%=      5-min Rain = 0
KWVS 170820Z 33010KT 02/M06 A301 RMK A01 T00211060  RH  055%=      5-min Rain = 0
KWVS 170821Z 33011KT 02/M06 A301 RMK A01 T00221061  RH  055%=      5-min Rain = 0
KWVS 170822Z 33011KT 02/M06 A301 RMK A01 T00221061  RH  054%=      5-min Rain = 0
KWVS 170823Z 33011KT 02/M06 A301 RMK A01 T00221061  RH  054%=      5-min Rain = 0
KWVS 170824Z 33011KT 02/M06 A301 RMK A01 T00231061  RH  054%=      5-min Rain = 0
KWVS 170825Z 33010KT 02/M06 A301 RMK A01 T00231061  RH  054%=      5-min Rain = 0
KWVS 170826Z 33010KT 02/M06 A301 RMK A01 T00221061  RH  054%=      5-min Rain = 0
KWVS 170827Z 33010KT 02/M06 A301 RMK A01 T00221060  RH  055%=      5-min Rain = 0
KWVS 170828Z 33010KT 02/M06 A301 RMK A01 T00211061  RH  055%=      5-min Rain = 0
KWVS 170829Z 33009KT 02/M06 A301 RMK A01 T00211061  RH  054%=      5-min Rain = 0
KWVS 170830Z 33009KT 02/M06 A301 RMK A01 T00211061  RH  054%=      5-min Rain = 0
KWVS 170831Z 33009KT 02/M06 A301 RMK A01 T00211061  RH  054%=      5-min Rain = 0
KWVS 170832Z 33009KT 02/M06 A301 RMK A01 T00211061  RH  055%=      5-min Rain = 0
KWVS 170833Z 33009KT 02/M06 A301 RMK A01 T00211061  RH  055%=      5-min Rain = 0
KWVS 170834Z 33009KT 02/M06 A301 RMK A01 T00201061  RH  055%=      5-min Rain = 0
KWVS 170835Z 33008KT 02/M06 A301 RMK A01 T00201061  RH  055%=      5-min Rain = 0
KWVS 170836Z 33008KT 02/M06 A301 RMK A01 T00191062  RH  055%=      5-min Rain = 0
KWVS 170837Z 33008KT 02/M06 A301 RMK A01 T00191062  RH  055%=      5-min Rain = 0
KWVS 170838Z 33008KT 02/M06 A301 RMK A01 T00181061  RH  056%=      5-min Rain = 0
KWVS 170839Z 33008KT 02/M06 A301 RMK A01 T00181061  RH  056%=      5-min Rain = 0
KWVS 170840Z 33008KT 02/M06 A301 RMK A01 T00171061  RH  056%=      5-min Rain = 0
KWVS 170841Z 32008KT 02/M06 A301 RMK A01 T00171061  RH  056%=      5-min Rain = 0
KWVS 170842Z 32008KT 02/M06 A301 RMK A01 T00161061  RH  056%=      5-min Rain = 0
KWVS 170843Z 32008KT 02/M06 A301 RMK A01 T00161061  RH  056%=      5-min Rain = 0
KWVS 170844Z 32008KT 02/M06 A301 RMK A01 T00161061  RH  057%=      5-min Rain = 0
KWVS 170845Z 32008KT 02/M06 A301 RMK A01 T00171060  RH  057%=      5-min Rain = 0
KWVS 170846Z 32007KT 02/M06 A301 RMK A01 T00171060  RH  057%=      5-min Rain = 0
KWVS 170847Z 32007KT 02/M06 A301 RMK A01 T00171060  RH  057%=      5-min Rain = 0
KWVS 170848Z 32008KT 02/M06 A301 RMK A01 T00171060  RH  057%=      5-min Rain = 0
KWVS 170849Z 32008KT 02/M06 A301 RMK A01 T00161060  RH  057%=      5-min Rain = 0
KWVS 170850Z 32008KT 02/M06 A301 RMK A01 T00161060  RH  057%=      5-min Rain = 0
KWVS 170851Z 32008KT 02/M06 A301 RMK A01 T00161060  RH  057%=      5-min Rain = 0
KWVS 170852Z 32008KT 02/M06 A301 RMK A01 T00161060  RH  057%=      5-min Rain = 0
KWVS 170853Z 32008KT 02/M06 A301 RMK A01 T00161060  RH  057%=      5-min Rain = 0
KWVS 170854Z 32008KT 02/M06 A301 RMK A01 T00171060  RH  057%=      5-min Rain = 0
KWVS 170855Z 32008KT 02/M06 A301 RMK A01 T00171060  RH  056%=      5-min Rain = 0
KWVS 170856Z 32008KT 02/M06 A301 RMK A01 T00181060  RH  056%=      5-min Rain = 0
KWVS 170857Z 33008KT 02/M06 A301 RMK A01 T00181060  RH  056%=      5-min Rain = 0
KWVS 170858Z 33008KT 02/M06 A301 RMK A01 T00181060  RH  056%=      5-min Rain = 0
KWVS 170859Z 33008KT 02/M06 A301 RMK A01 T00181060  RH  056%=      5-min Rain = 0
KWVS 170900Z 33008KT 02/M06 A301 RMK A01 T00181060  RH  056%=      5-min Rain = 0
KWVS 170901Z 33008KT 02/M06 A301 RMK A01 T00181059  RH  057%=      5-min Rain = 0
KWVS 170902Z 33008KT 02/M06 A301 RMK A01 T00171059  RH  057%=      5-min Rain = 0
KWVS 170903Z 32009KT 02/M06 A301 RMK A01 T00171059  RH  057%=      5-min Rain = 0
KWVS 170904Z 32009KT 02/M06 A301 RMK A01 T00171058  RH  057%=      5-min Rain = 0
KWVS 170905Z 32008KT 02/M06 A301 RMK A01 T00171058  RH  057%=      5-min Rain = 0
KWVS 170906Z 32008KT 02/M06 A301 RMK A01 T00171058  RH  057%=      5-min Rain = 0
KWVS 170907Z 32008KT 02/M06 A301 RMK A01 T00171058  RH  058%=      5-min Rain = 0
KWVS 170908Z 32007KT 02/M06 A301 RMK A01 T00171058  RH  058%=      5-min Rain = 0
KWVS 170909Z 32007KT 02/M06 A301 RMK A01 T00171058  RH  058%=      5-min Rain = 0
KWVS 170910Z 32007KT 02/M06 A301 RMK A01 T00171058  RH  058%=      5-min Rain = 0
KWVS 170911Z 31007KT 02/M06 A301 RMK A01 T00171057  RH  058%=      5-min Rain = 0
KWVS 170912Z 31006KT 02/M06 A301 RMK A01 T00171057  RH  058%=      5-min Rain = 0
KWVS 170913Z 31006KT 02/M06 A301 RMK A01 T00161057  RH  058%=      5-min Rain = 0
KWVS 170914Z 31007KT 02/M06 A301 RMK A01 T00161057  RH  058%=      5-min Rain = 0
KWVS 170915Z 31006KT 02/M06 A301 RMK A01 T00161057  RH  058%=      5-min Rain = 0
KWVS 170916Z 31006KT 02/M06 A301 RMK A01 T00161057  RH  058%=      5-min Rain = 0
KWVS 170917Z 31006KT 02/M06 A301 RMK A01 T00161058  RH  058%=      5-min Rain = 0
KWVS 170918Z 30006KT 02/M06 A301 RMK A01 T00171057  RH  058%=      5-min Rain = 0
KWVS 170919Z 31006KT 02/M06 A301 RMK A01 T00191058  RH  057%=      5-min Rain = 0
KWVS 170920Z 31006KT 02/M06 A301 RMK A01 T00201058  RH  056%=      5-min Rain = 0
KWVS 170921Z 30006KT 02/M06 A301 RMK A01 T00211058  RH  056%=      5-min Rain = 0
KWVS 170922Z 31006KT 02/M06 A301 RMK A01 T00211058  RH  056%=      5-min Rain = 0
KWVS 170923Z 31006KT 02/M06 A301 RMK A01 T00221058  RH  055%=      5-min Rain = 0
KWVS 170924Z 31006KT 02/M06 A301 RMK A01 T00221058  RH  055%=      5-min Rain = 0
KWVS 170925Z 31006KT 02/M06 A301 RMK A01 T00231058  RH  055%=      5-min Rain = 0
KWVS 170926Z 30005KT 02/M06 A301 RMK A01 T00231058  RH  055%=      5-min Rain = 0
KWVS 170927Z 31006KT 02/M06 A301 RMK A01 T00241058  RH  055%=      5-min Rain = 0
KWVS 170928Z 30005KT 02/M06 A301 RMK A01 T00241058  RH  054%=      5-min Rain = 0
KWVS 170929Z 30005KT 03/M06 A301 RMK A01 T00251058  RH  054%=      5-min Rain = 0
KWVS 170930Z 30005KT 03/M06 A301 RMK A01 T00251058  RH  054%=      5-min Rain = 0
KWVS 170931Z 30005KT 03/M06 A301 RMK A01 T00251058  RH  054%=      5-min Rain = 0
KWVS 170932Z 30005KT 03/M06 A301 RMK A01 T00251058  RH  054%=      5-min Rain = 0
KWVS 170933Z 30005KT 03/M06 A301 RMK A01 T00251058  RH  054%=      5-min Rain = 0
KWVS 170934Z 30005KT 03/M06 A301 RMK A01 T00251058  RH  054%=      5-min Rain = 0
KWVS 170935Z 31006KT 03/M06 A301 RMK A01 T00261057  RH  054%=      5-min Rain = 0
KWVS 170936Z 31006KT 03/M06 A301 RMK A01 T00271057  RH  054%=      5-min Rain = 0
KWVS 170937Z 31006KT 03/M06 A3009 RMK A01 T00281057  RH  054%=      5-min Rain = 0
KWVS 170938Z 31006KT 03/M06 A3009 RMK A01 T00281056  RH  054%=      5-min Rain = 0
KWVS 170939Z 31006KT 03/M06 A3009 RMK A01 T00281056  RH  054%=      5-min Rain = 0
KWVS 170940Z 32006KT 03/M06 A3009 RMK A01 T00281055  RH  054%=      5-min Rain = 0
KWVS 170941Z 33005KT 03/M06 A301 RMK A01 T00291055  RH  054%=      5-min Rain = 0
KWVS 170942Z 32005KT 03/M05 A3009 RMK A01 T00291054  RH  054%=      5-min Rain = 0
KWVS 170943Z 33006KT 03/M05 A3009 RMK A01 T00281054  RH  055%=      5-min Rain = 0
KWVS 170944Z 35005KT 03/M05 A301 RMK A01 T00271053  RH  056%=      5-min Rain = 0
KWVS 170945Z 34006KT 03/M05 A301 RMK A01 T00251052  RH  057%=      5-min Rain = 0
KWVS 170946Z 33007KT 02/M05 A301 RMK A01 T00221051  RH  059%=      5-min Rain = 0
KWVS 170947Z 33006KT 02/M05 A301 RMK A01 T00201050  RH  060%=      5-min Rain = 0
KWVS 170948Z 32007KT 02/M05 A301 RMK A01 T00191049  RH  061%=      5-min Rain = 0
KWVS 170949Z 32006KT 02/M05 A301 RMK A01 T00181049  RH  061%=      5-min Rain = 0
KWVS 170950Z 32007KT 02/M05 A301 RMK A01 T00181048  RH  062%=      5-min Rain = 0
KWVS 170951Z 31007KT 02/M05 A301 RMK A01 T00181048  RH  062%=      5-min Rain = 0
KWVS 170952Z 31007KT 02/M05 A301 RMK A01 T00181047  RH  062%=      5-min Rain = 0
KWVS 170953Z 31006KT 02/M05 A301 RMK A01 T00181047  RH  062%=      5-min Rain = 0
KWVS 170954Z 31006KT 02/M05 A301 RMK A01 T00191046  RH  062%=      5-min Rain = 0
KWVS 170955Z 32006KT 02/M05 A301 RMK A01 T00191046  RH  062%=      5-min Rain = 0
KWVS 170956Z 32006KT 02/M05 A301 RMK A01 T00191045  RH  063%=      5-min Rain = 0
KWVS 170957Z 32006KT 02/M04 A301 RMK A01 T00181044  RH  063%=      5-min Rain = 0
KWVS 170958Z 32007KT 02/M04 A301 RMK A01 T00171044  RH  064%=      5-min Rain = 0
KWVS 170959Z 32007KT 02/M04 A301 RMK A01 T00171043  RH  064%=      5-min Rain = 0
KWVS 171000Z 32007KT 02/M04 A301 RMK A01 T00171043  RH  065%=      5-min Rain = 0
KWVS 171001Z 33007KT 02/M04 A301 RMK A01 T00171042  RH  065%=      5-min Rain = 0
KWVS 171002Z 33008KT 02/M04 A3009 RMK A01 T00171042  RH  065%=      5-min Rain = 0
KWVS 171003Z 33007KT 02/M04 A3009 RMK A01 T00171042  RH  065%=      5-min Rain = 0
KWVS 171004Z 33007KT 02/M04 A3009 RMK A01 T00171042  RH  065%=      5-min Rain = 0
KWVS 171005Z 33007KT 02/M04 A3009 RMK A01 T00161042  RH  065%=      5-min Rain = 0
KWVS 171006Z 33007KT 02/M04 A3009 RMK A01 T00161042  RH  066%=      5-min Rain = 0
KWVS 171007Z 34007KT 02/M04 A3009 RMK A01 T00161042  RH  065%=      5-min Rain = 0
KWVS 171008Z 34007KT 02/M04 A3009 RMK A01 T00161042  RH  065%=      5-min Rain = 0
KWVS 171009Z 34007KT 02/M04 A3009 RMK A01 T00151042  RH  066%=      5-min Rain = 0
KWVS 171010Z 34008KT 02/M04 A3009 RMK A01 T00151042  RH  066%=      5-min Rain = 0
KWVS 171011Z 34008KT 01/M04 A3009 RMK A01 T00141042  RH  066%=      5-min Rain = 0
KWVS 171012Z 34009KT 01/M04 A3009 RMK A01 T00141042  RH  066%=      5-min Rain = 0
KWVS 171013Z 34009KT 01/M04 A3009 RMK A01 T00131042  RH  067%=      5-min Rain = 0
KWVS 171014Z 33010KT 01/M04 A3009 RMK A01 T00141042  RH  066%=      5-min Rain = 0
KWVS 171015Z 34009KT 02/M04 A3009 RMK A01 T00151042  RH  066%=      5-min Rain = 0
KWVS 171016Z 34009KT 02/M04 A3009 RMK A01 T00151042  RH  066%=      5-min Rain = 0
KWVS 171017Z 34009KT 01/M04 A3009 RMK A01 T00141042  RH  066%=      5-min Rain = 0
KWVS 171018Z 34009KT 01/M04 A3009 RMK A01 T00141042  RH  066%=      5-min Rain = 0
KWVS 171019Z 34009KT 01/M04 A3009 RMK A01 T00141042  RH  067%=      5-min Rain = 0
KWVS 171020Z 33009KT 01/M04 A3009 RMK A01 T00141042  RH  066%=      5-min Rain = 0
KWVS 171021Z 33009KT 01/M04 A3009 RMK A01 T00141042  RH  066%=      5-min Rain = 0
KWVS 171022Z 33010KT 01/M04 A3009 RMK A01 T00141042  RH  066%=      5-min Rain = 0
KWVS 171023Z 33010KT 01/M04 A3009 RMK A01 T00141041  RH  067%=      5-min Rain = 0
KWVS 171024Z 33010KT 01/M04 A3009 RMK A01 T00131041  RH  067%=      5-min Rain = 0
KWVS 171025Z 33010KT 01/M04 A3009 RMK A01 T00131041  RH  067%=      5-min Rain = 0
KWVS 171026Z 33010KT 01/M04 A3009 RMK A01 T00131041  RH  067%=      5-min Rain = 0
KWVS 171027Z 34009KT 01/M04 A3009 RMK A01 T00131041  RH  067%=      5-min Rain = 0
KWVS 171028Z 34010KT 01/M04 A3009 RMK A01 T00131041  RH  067%=      5-min Rain = 0
KWVS 171029Z 36015KT 01/M04 A3009 RMK A01 T00131041  RH  067%=      5-min Rain = 0
KWVS 171030Z 35013KT 01/M04 A3009 RMK A01 T00111041  RH  068%=      5-min Rain = 0
KWVS 171031Z 35013KT 01/M04 A3009 RMK A01 T00101041  RH  069%=      5-min Rain = 0
KWVS 171032Z 36015KT 01/M04 A3009 RMK A01 T00091040  RH  069%=      5-min Rain = 0
KWVS 171033Z 35013KT 01/M04 A3009 RMK A01 T00091040  RH  070%=      5-min Rain = 0
KWVS 171034Z 35013KT 01/M04 A3009 RMK A01 T00091040  RH  070%=      5-min Rain = 0
KWVS 171035Z 35013KT 01/M04 A3009 RMK A01 T00091040  RH  070%=      5-min Rain = 0
KWVS 171036Z 35013KT 01/M04 A3009 RMK A01 T00091040  RH  070%=      5-min Rain = 0
KWVS 171037Z 35012KT 01/M04 A3009 RMK A01 T00091040  RH  070%=      5-min Rain = 0
KWVS 171038Z 34012KT 01/M04 A3009 RMK A01 T00091040  RH  070%=      5-min Rain = 0
KWVS 171039Z 34012KT 01/M04 A3009 RMK A01 T00081040  RH  070%=      5-min Rain = 0
KWVS 171040Z 35011KT 01/M04 A3009 RMK A01 T00091041  RH  070%=      5-min Rain = 0
KWVS 171041Z 34010KT 01/M04 A3009 RMK A01 T00081041  RH  070%=      5-min Rain = 0
KWVS 171042Z 34011KT 01/M04 A3009 RMK A01 T00081041  RH  070%=      5-min Rain = 0
KWVS 171043Z 34010KT 01/M04 A3009 RMK A01 T00081041  RH  070%=      5-min Rain = 0
KWVS 171044Z 34011KT 01/M04 A3009 RMK A01 T00081041  RH  070%=      5-min Rain = 0
KWVS 171045Z 34011KT 01/M04 A3009 RMK A01 T00081041  RH  070%=      5-min Rain = 0
KWVS 171046Z 35010KT 01/M04 A3009 RMK A01 T00091041  RH  069%=      5-min Rain = 0
KWVS 171047Z 34009KT 01/M04 A3009 RMK A01 T00091041  RH  069%=      5-min Rain = 0
KWVS 171048Z 34009KT 01/M04 A3009 RMK A01 T00101041  RH  069%=      5-min Rain = 0
KWVS 171049Z 34009KT 01/M04 A3009 RMK A01 T00111041  RH  068%=      5-min Rain = 0
KWVS 171050Z 34009KT 01/M04 A3009 RMK A01 T00111041  RH  068%=      5-min Rain = 0
KWVS 171051Z 34009KT 01/M04 A3009 RMK A01 T00111041  RH  068%=      5-min Rain = 0
KWVS 171052Z 34009KT 01/M04 A3009 RMK A01 T00121041  RH  068%=      5-min Rain = 0
KWVS 171053Z 34009KT 01/M04 A3009 RMK A01 T00121041  RH  068%=      5-min Rain = 0
KWVS 171054Z 34009KT 01/M04 A3009 RMK A01 T00131040  RH  068%=      5-min Rain = 0
KWVS 171055Z 34009KT 01/M04 A3009 RMK A01 T00131041  RH  067%=      5-min Rain = 0
KWVS 171056Z 34009KT 01/M04 A3009 RMK A01 T00131041  RH  068%=      5-min Rain = 0
KWVS 171057Z 34010KT 01/M04 A301 RMK A01 T00131040  RH  068%=      5-min Rain = 0
KWVS 171058Z 34010KT 01/M04 A301 RMK A01 T00131040  RH  068%=      5-min Rain = 0
KWVS 171059Z 34010KT 01/M04 A301 RMK A01 T00131040  RH  068%=      5-min Rain = 0
KWVS 171100Z 34009KT 01/M04 A301 RMK A01 T00131040  RH  068%=      5-min Rain = 0
KWVS 171101Z 34009KT 01/M04 A301 RMK A01 T00121040  RH  068%=      5-min Rain = 0
KWVS 171102Z 34009KT 01/M04 A301 RMK A01 T00121040  RH  068%=      5-min Rain = 0
KWVS 171103Z 34008KT 01/M04 A301 RMK A01 T00111040  RH  069%=      5-min Rain = 0
KWVS 171104Z 34008KT 01/M04 A301 RMK A01 T00101041  RH  069%=      5-min Rain = 0
KWVS 171105Z 34009KT 01/M04 A301 RMK A01 T00081041  RH  070%=      5-min Rain = 0
KWVS 171106Z 34009KT 01/M04 A301 RMK A01 T00071040  RH  070%=      5-min Rain = 0
KWVS 171107Z 34009KT 01/M04 A301 RMK A01 T00071040  RH  071%=      5-min Rain = 0
KWVS 171108Z 35009KT 01/M04 A301 RMK A01 T00071040  RH  071%=      5-min Rain = 0
KWVS 171109Z 35009KT 01/M04 A301 RMK A01 T00081039  RH  071%=      5-min Rain = 0
KWVS 171110Z 34009KT 01/M04 A301 RMK A01 T00081039  RH  071%=      5-min Rain = 0
KWVS 171111Z 35010KT 01/M04 A301 RMK A01 T00091039  RH  070%=      5-min Rain = 0
KWVS 171112Z 35009KT 01/M04 A301 RMK A01 T00101039  RH  070%=      5-min Rain = 0
KWVS 171113Z 34010KT 01/M04 A301 RMK A01 T00111039  RH  069%=      5-min Rain = 0
KWVS 171114Z 34010KT 01/M04 A301 RMK A01 T00111039  RH  069%=      5-min Rain = 0
KWVS 171115Z 34010KT 01/M04 A301 RMK A01 T00111039  RH  070%=      5-min Rain = 0
KWVS 171116Z 35010KT 01/M04 A301 RMK A01 T00111038  RH  070%=      5-min Rain = 0
KWVS 171117Z 35010KT 01/M04 A301 RMK A01 T00111038  RH  070%=      5-min Rain = 0
KWVS 171118Z 35010KT 01/M04 A301 RMK A01 T00111038  RH  070%=      5-min Rain = 0
KWVS 171119Z 35010KT 01/M04 A301 RMK A01 T00111038  RH  070%=      5-min Rain = 0
KWVS 171120Z 35009KT 01/M04 A301 RMK A01 T00111039  RH  070%=      5-min Rain = 0
KWVS 171121Z 35010KT 01/M04 A301 RMK A01 T00111038  RH  070%=      5-min Rain = 0
KWVS 171122Z 35010KT 01/M04 A301 RMK A01 T00111038  RH  070%=      5-min Rain = 0
KWVS 171123Z 35010KT 01/M04 A301 RMK A01 T00111038  RH  070%=      5-min Rain = 0
KWVS 171124Z 36010KT 01/M04 A301 RMK A01 T00111038  RH  070%=      5-min Rain = 0
KWVS 171125Z 35011KT 01/M04 A301 RMK A01 T00111038  RH  070%=      5-min Rain = 0
KWVS 171126Z 35011KT 01/M04 A301 RMK A01 T00111038  RH  070%=      5-min Rain = 0
KWVS 171127Z 35010KT 01/M04 A301 RMK A01 T00111038  RH  070%=      5-min Rain = 0
KWVS 171128Z 35010KT 01/M04 A301 RMK A01 T00111038  RH  070%=      5-min Rain = 0
KWVS 171129Z 35010KT 01/M04 A301 RMK A01 T00111038  RH  070%=      5-min Rain = 0
KWVS 171130Z 35010KT 01/M04 A301 RMK A01 T00111038  RH  070%=      5-min Rain = 0
KWVS 171131Z 35010KT 01/M04 A301 RMK A01 T00111038  RH  069%=      5-min Rain = 0
KWVS 171132Z 35010KT 01/M04 A301 RMK A01 T00121038  RH  069%=      5-min Rain = 0
KWVS 171133Z 36010KT 01/M04 A301 RMK A01 T00121038  RH  069%=      5-min Rain = 0
KWVS 171134Z 35009KT 01/M04 A301 RMK A01 T00121038  RH  069%=      5-min Rain = 0
KWVS 171135Z 35010KT 01/M04 A301 RMK A01 T00121039  RH  069%=      5-min Rain = 0
KWVS 171136Z 35011KT 01/M04 A301 RMK A01 T00121039  RH  069%=      5-min Rain = 0
KWVS 171137Z 35011KT 01/M04 A301 RMK A01 T00121039  RH  069%=      5-min Rain = 0
KWVS 171138Z 36011KT 01/M04 A301 RMK A01 T00111039  RH  069%=      5-min Rain = 0
KWVS 171139Z 36011KT 01/M04 A301 RMK A01 T00111039  RH  069%=      5-min Rain = 0
KWVS 171140Z 00010KT 01/M04 A301 RMK A01 T00121039  RH  069%=      5-min Rain = 0
KWVS 171141Z 36010KT 01/M04 A301 RMK A01 T00121039  RH  069%=      5-min Rain = 0
KWVS 171142Z 36010KT 01/M04 A301 RMK A01 T00121039  RH  069%=      5-min Rain = 0
KWVS 171143Z 36010KT 01/M04 A301 RMK A01 T00131039  RH  068%=      5-min Rain = 0
KWVS 171144Z 35010KT 02/M04 A301 RMK A01 T00151039  RH  068%=      5-min Rain = 0
KWVS 171145Z 35010KT 02/M04 A301 RMK A01 T00151039  RH  067%=      5-min Rain = 0
KWVS 171146Z 35010KT 01/M04 A301 RMK A01 T00131039  RH  068%=      5-min Rain = 0
KWVS 171147Z 35010KT 01/M04 A301 RMK A01 T00121039  RH  069%=      5-min Rain = 0
KWVS 171148Z 35010KT 01/M04 A3011 RMK A01 T00111039  RH  069%=      5-min Rain = 0
KWVS 171149Z 35010KT 01/M04 A3011 RMK A01 T00111039  RH  069%=      5-min Rain = 0
KWVS 171150Z 35010KT 01/M04 A3011 RMK A01 T00111039  RH  069%=      5-min Rain = 0
KWVS 171151Z 35010KT 01/M04 A3011 RMK A01 T00091040  RH  070%=      5-min Rain = 0
KWVS 171152Z 35011KT 01/M04 A3011 RMK A01 T00091040  RH  070%=      5-min Rain = 0
KWVS 171153Z 35011KT 01/M04 A3011 RMK A01 T00091040  RH  070%=      5-min Rain = 0
KWVS 171154Z 35011KT 01/M04 A3011 RMK A01 T00091040  RH  070%=      5-min Rain = 0
KWVS 171155Z 35011KT 01/M04 A3011 RMK A01 T00101040  RH  070%=      5-min Rain = 0
KWVS 171156Z 34011KT 01/M04 A3011 RMK A01 T00101040  RH  069%=      5-min Rain = 0
KWVS 171157Z 34011KT 01/M04 A3011 RMK A01 T00101040  RH  069%=      5-min Rain = 0
KWVS 171158Z 34011KT 01/M04 A3011 RMK A01 T00101040  RH  070%=      5-min Rain = 0
KWVS 171159Z 35011KT 01/M04 A3011 RMK A01 T00091040  RH  070%=      5-min Rain = 0
KWVS 171200Z 35011KT 01/M04 A3012 RMK A01 T00091040  RH  069%=      5-min Rain = 0
KWVS 171201Z 35011KT 01/M04 A3012 RMK A01 T00091041  RH  069%=      5-min Rain = 0
KWVS 171202Z 35011KT 01/M04 A3012 RMK A01 T00101041  RH  069%=      5-min Rain = 0
KWVS 171203Z 35011KT 01/M04 A3012 RMK A01 T00101041  RH  069%=      5-min Rain = 0
KWVS 171204Z 34011KT 01/M04 A3012 RMK A01 T00101041  RH  068%=      5-min Rain = 0
KWVS 171205Z 34011KT 01/M04 A3012 RMK A01 T00111041  RH  068%=      5-min Rain = 0
KWVS 171206Z 34011KT 01/M04 A3012 RMK A01 T00111042  RH  068%=      5-min Rain = 0
KWVS 171207Z 34011KT 01/M04 A3012 RMK A01 T00121042  RH  067%=      5-min Rain = 0
KWVS 171208Z 35011KT 01/M04 A3012 RMK A01 T00121042  RH  067%=      5-min Rain = 0
KWVS 171209Z 35011KT 01/M04 A3012 RMK A01 T00121042  RH  067%=      5-min Rain = 0
KWVS 171210Z 35011KT 01/M04 A3012 RMK A01 T00121042  RH  067%=      5-min Rain = 0
KWVS 171211Z 35011KT 01/M04 A3012 RMK A01 T00121042  RH  067%=      5-min Rain = 0
KWVS 171212Z 35011KT 01/M04 A3012 RMK A01 T00121042  RH  067%=      5-min Rain = 0
KWVS 171213Z 35011KT 01/M04 A3012 RMK A01 T00111042  RH  067%=      5-min Rain = 0
KWVS 171214Z 35011KT 01/M04 A3012 RMK A01 T00111043  RH  067%=      5-min Rain = 0
KWVS 171215Z 35010KT 01/M04 A3012 RMK A01 T00111043  RH  067%=      5-min Rain = 0
KWVS 171216Z 35011KT 01/M04 A3012 RMK A01 T00121043  RH  067%=      5-min Rain = 0
KWVS 171217Z 35010KT 01/M04 A3012 RMK A01 T00121043  RH  067%=      5-min Rain = 0
KWVS 171218Z 35010KT 01/M04 A3012 RMK A01 T00121043  RH  067%=      5-min Rain = 0
KWVS 171219Z 35010KT 01/M04 A3012 RMK A01 T00111044  RH  067%=      5-min Rain = 0
KWVS 171220Z 35010KT 01/M04 A3012 RMK A01 T00111044  RH  067%=      5-min Rain = 0
KWVS 171221Z 35010KT 01/M04 A3012 RMK A01 T00111044  RH  067%=      5-min Rain = 0
KWVS 171222Z 35010KT 01/M04 A3012 RMK A01 T00101044  RH  067%=      5-min Rain = 0
KWVS 171223Z 35010KT 01/M04 A3012 RMK A01 T00101044  RH  067%=      5-min Rain = 0
KWVS 171224Z 35010KT 01/M04 A3012 RMK A01 T00101044  RH  067%=      5-min Rain = 0
KWVS 171225Z 35010KT 01/M04 A3012 RMK A01 T00111044  RH  067%=      5-min Rain = 0
KWVS 171226Z 35010KT 01/M04 A3012 RMK A01 T00111044  RH  067%=      5-min Rain = 0
KWVS 171227Z 35011KT 01/M04 A3013 RMK A01 T00111044  RH  066%=      5-min Rain = 0
KWVS 171228Z 35011KT 01/M05 A3013 RMK A01 T00111045  RH  066%=      5-min Rain = 0
KWVS 171229Z 35011KT 01/M05 A3013 RMK A01 T00121045  RH  066%=      5-min Rain = 0
KWVS 171230Z 35011KT 01/M05 A3013 RMK A01 T00121045  RH  066%=      5-min Rain = 0
KWVS 171231Z 35010KT 01/M05 A3013 RMK A01 T00121045  RH  066%=      5-min Rain = 0
KWVS 171232Z 34010KT 01/M05 A3013 RMK A01 T00121045  RH  066%=      5-min Rain = 0
KWVS 171233Z 34010KT 01/M05 A3013 RMK A01 T00121045  RH  066%=      5-min Rain = 0
KWVS 171234Z 34009KT 01/M05 A3013 RMK A01 T00121045  RH  066%=      5-min Rain = 0
KWVS 171235Z 34009KT 01/M05 A3013 RMK A01 T00121045  RH  066%=      5-min Rain = 0
KWVS 171236Z 34009KT 01/M05 A3013 RMK A01 T00111045  RH  066%=      5-min Rain = 0
KWVS 171237Z 34009KT 01/M05 A3013 RMK A01 T00101045  RH  067%=      5-min Rain = 0
KWVS 171238Z 34009KT 01/M05 A3013 RMK A01 T00091045  RH  067%=      5-min Rain = 0
KWVS 171239Z 34009KT 01/M05 A3013 RMK A01 T00081045  RH  068%=      5-min Rain = 0
KWVS 171240Z 34009KT 01/M05 A3013 RMK A01 T00071045  RH  068%=      5-min Rain = 0
KWVS 171241Z 33010KT 01/M05 A3013 RMK A01 T00061045  RH  069%=      5-min Rain = 0
KWVS 171242Z 33009KT 01/M05 A3013 RMK A01 T00051045  RH  069%=      5-min Rain = 0
KWVS 171243Z 33009KT 00/M05 A3013 RMK A01 T00041045  RH  070%=      5-min Rain = 0
KWVS 171244Z 33009KT 00/M05 A3013 RMK A01 T00041045  RH  070%=      5-min Rain = 0
KWVS 171245Z 33009KT 00/M05 A3013 RMK A01 T00031045  RH  070%=      5-min Rain = 0
KWVS 171246Z 33009KT 00/M05 A3013 RMK A01 T00021045  RH  070%=      5-min Rain = 0
KWVS 171247Z 33009KT 00/M05 A3013 RMK A01 T00011045  RH  071%=      5-min Rain = 0
KWVS 171248Z 33009KT 00/M05 A3013 RMK A01 T00011045  RH  071%=      5-min Rain = 0
KWVS 171249Z 33009KT 00/05 A3013 RMK A01 T00-00-45  RH  072%=      5-min Rain = 0
KWVS 171250Z 33008KT M00/M05 A3013 RMK A01 T10011046  RH  072%=      5-min Rain = 0
KWVS 171251Z 33008KT M00/M05 A3013 RMK A01 T10011046  RH  072%=      5-min Rain = 0
KWVS 171252Z 33009KT M00/M05 A3013 RMK A01 T10011046  RH  072%=      5-min Rain = 0
KWVS 171253Z 33009KT M00/M05 A3013 RMK A01 T10011046  RH  072%=      5-min Rain = 0
KWVS 171254Z 33009KT M00/M05 A3013 RMK A01 T10011046  RH  072%=      5-min Rain = 0
KWVS 171255Z 33010KT M00/M05 A3013 RMK A01 T10021046  RH  072%=      5-min Rain = 0
KWVS 171256Z 33009KT M00/M05 A3013 RMK A01 T10021046  RH  072%=      5-min Rain = 0
KWVS 171257Z 33009KT M00/M05 A3013 RMK A01 T10021046  RH  072%=      5-min Rain = 0
KWVS 171258Z 33009KT M00/M05 A3013 RMK A01 T10021046  RH  072%=      5-min Rain = 0
KWVS 171259Z 33009KT M00/M05 A3013 RMK A01 T10021046  RH  072%=      5-min Rain = 0
KWVS 171300Z 33009KT M00/M05 A3013 RMK A01 T10021046  RH  072%=      5-min Rain = 0
KWVS 171301Z 33009KT M00/M05 A3013 RMK A01 T10021046  RH  072%=      5-min Rain = 0
KWVS 171302Z 33009KT M00/M05 A3013 RMK A01 T10021046  RH  072%=      5-min Rain = 0
KWVS 171303Z 33009KT M00/M05 A3013 RMK A01 T10021046  RH  072%=      5-min Rain = 0
KWVS 171304Z 33010KT M00/M05 A3013 RMK A01 T10021046  RH  072%=      5-min Rain = 0
KWVS 171305Z 33010KT M00/M05 A3013 RMK A01 T10021046  RH  072%=      5-min Rain = 0
KWVS 171306Z 33010KT M00/M05 A3013 RMK A01 T10021046  RH  072%=      5-min Rain = 0
KWVS 171307Z 33009KT M00/M05 A3013 RMK A01 T10021046  RH  072%=      5-min Rain = 0
KWVS 171308Z 33009KT M00/M05 A3013 RMK A01 T10021046  RH  072%=      5-min Rain = 0
KWVS 171309Z 33009KT M00/M05 A3013 RMK A01 T10021046  RH  072%=      5-min Rain = 0
KWVS 171310Z 33009KT M00/M05 A3014 RMK A01 T10021046  RH  072%=      5-min Rain = 0
KWVS 171311Z 33009KT M00/M05 A3014 RMK A01 T10021046  RH  072%=      5-min Rain = 0
KWVS 171312Z 33009KT M00/M05 A3014 RMK A01 T10021046  RH  072%=      5-min Rain = 0
KWVS 171313Z 33010KT M00/M05 A3014 RMK A01 T10021047  RH  072%=      5-min Rain = 0
KWVS 171314Z 33010KT M00/M05 A3014 RMK A01 T10011047  RH  072%=      5-min Rain = 0
KWVS 171315Z 33010KT M00/M05 A3014 RMK A01 T10011047  RH  071%=      5-min Rain = 0
KWVS 171316Z 33010KT M00/M05 A3014 RMK A01 T10011047  RH  071%=      5-min Rain = 0
KWVS 171317Z 33010KT 00/05 A3014 RMK A01 T00-00-47  RH  071%=      5-min Rain = 0
KWVS 171318Z 33010KT 00/05 A3014 RMK A01 T00000-47  RH  071%=      5-min Rain = 0
KWVS 171319Z 33010KT 00/M05 A3014 RMK A01 T00011047  RH  071%=      5-min Rain = 0
KWVS 171320Z 33009KT 00/M05 A3014 RMK A01 T00011047  RH  070%=      5-min Rain = 0
KWVS 171321Z 34009KT 00/M05 A3014 RMK A01 T00011047  RH  070%=      5-min Rain = 0
KWVS 171322Z 34010KT 00/M05 A3014 RMK A01 T00011047  RH  070%=      5-min Rain = 0
KWVS 171323Z 34010KT 00/M05 A3014 RMK A01 T00011047  RH  070%=      5-min Rain = 0
KWVS 171324Z 34010KT 00/M05 A3014 RMK A01 T00011047  RH  070%=      5-min Rain = 0
KWVS 171325Z 33010KT 00/M05 A3014 RMK A01 T00011047  RH  070%=      5-min Rain = 0
KWVS 171326Z 34009KT 00/M05 A3014 RMK A01 T00011047  RH  070%=      5-min Rain = 0
KWVS 171327Z 34009KT 00/M05 A3014 RMK A01 T00011047  RH  070%=      5-min Rain = 0
KWVS 171328Z 34009KT 00/M05 A3014 RMK A01 T00011047  RH  070%=      5-min Rain = 0
KWVS 171329Z 33010KT 00/M05 A3014 RMK A01 T00021047  RH  070%=      5-min Rain = 0
KWVS 171330Z 33010KT 00/M05 A3014 RMK A01 T00021047  RH  069%=      5-min Rain = 0
KWVS 171331Z 33009KT 00/M05 A3014 RMK A01 T00021048  RH  069%=      5-min Rain = 0
KWVS 171332Z 33009KT 00/M05 A3014 RMK A01 T00021047  RH  069%=      5-min Rain = 0
KWVS 171333Z 33009KT 00/M05 A3014 RMK A01 T00021047  RH  070%=      5-min Rain = 0
KWVS 171334Z 34009KT 00/M05 A3014 RMK A01 T00021047  RH  070%=      5-min Rain = 0
KWVS 171335Z 33009KT 00/M05 A3014 RMK A01 T00021047  RH  070%=      5-min Rain = 0
KWVS 171336Z 33009KT 00/M05 A3014 RMK A01 T00011047  RH  070%=      5-min Rain = 0
KWVS 171337Z 34009KT 00/M05 A3014 RMK A01 T00011047  RH  070%=      5-min Rain = 0
KWVS 171338Z 33009KT 00/M05 A3014 RMK A01 T00011047  RH  070%=      5-min Rain = 0
KWVS 171339Z 33009KT 00/M05 A3014 RMK A01 T00011047  RH  070%=      5-min Rain = 0
KWVS 171340Z 33009KT 00/M05 A3014 RMK A01 T00011047  RH  070%=      5-min Rain = 0
KWVS 171341Z 33009KT 00/M05 A3014 RMK A01 T00011047  RH  070%=      5-min Rain = 0
KWVS 171342Z 33009KT 00/M05 A3014 RMK A01 T00011047  RH  070%=      5-min Rain = 0
KWVS 171343Z 34009KT 00/M05 A3014 RMK A01 T00011047  RH  070%=      5-min Rain = 0
KWVS 171344Z 33009KT 00/M05 A3014 RMK A01 T00011048  RH  070%=      5-min Rain = 0
KWVS 171345Z 33009KT 00/M05 A3014 RMK A01 T00021047  RH  070%=      5-min Rain = 0
KWVS 171346Z 33009KT 00/M05 A3014 RMK A01 T00021048  RH  069%=      5-min Rain = 0
KWVS 171347Z 33009KT 00/M05 A3014 RMK A01 T00021048  RH  069%=      5-min Rain = 0
KWVS 171348Z 33009KT 00/M05 A3014 RMK A01 T00021048  RH  069%=      5-min Rain = 0
KWVS 171349Z 33008KT 00/M05 A3015 RMK A01 T00021048  RH  069%=      5-min Rain = 0
KWVS 171350Z 33009KT 00/M05 A3015 RMK A01 T00021048  RH  069%=      5-min Rain = 0
KWVS 171351Z 33008KT 00/M05 A3015 RMK A01 T00021048  RH  069%=      5-min Rain = 0
KWVS 171352Z 33008KT 00/M05 A3015 RMK A01 T00021048  RH  069%=      5-min Rain = 0
KWVS 171353Z 33008KT 00/M05 A3015 RMK A01 T00021048  RH  069%=      5-min Rain = 0
KWVS 171354Z 33007KT 00/M05 A3015 RMK A01 T00031048  RH  069%=      5-min Rain = 0
KWVS 171355Z 33007KT 00/M05 A3015 RMK A01 T00031048  RH  069%=      5-min Rain = 0
KWVS 171356Z 33007KT 00/M05 A3015 RMK A01 T00031048  RH  069%=      5-min Rain = 0
KWVS 171357Z 33007KT 00/M05 A3015 RMK A01 T00031048  RH  069%=      5-min Rain = 0
KWVS 171358Z 33007KT 00/M05 A3015 RMK A01 T00021048  RH  069%=      5-min Rain = 0
KWVS 171359Z 33007KT 00/M05 A3015 RMK A01 T00021048  RH  069%=      5-min Rain = 0
KWVS 171400Z 33007KT 00/M05 A3015 RMK A01 T00031048  RH  069%=      5-min Rain = 0
KWVS 171401Z 33007KT 00/M05 A3015 RMK A01 T00031048  RH  069%=      5-min Rain = 0
KWVS 171402Z 33007KT 00/M05 A3015 RMK A01 T00031048  RH  068%=      5-min Rain = 0
KWVS 171403Z 33007KT 00/M05 A3015 RMK A01 T00041048  RH  068%=      5-min Rain = 0
KWVS 171404Z 33007KT 00/M05 A3015 RMK A01 T00041049  RH  068%=      5-min Rain = 0
KWVS 171405Z 33007KT 01/M05 A3015 RMK A01 T00051048  RH  067%=      5-min Rain = 0
KWVS 171406Z 33007KT 01/M05 A3015 RMK A01 T00051049  RH  067%=      5-min Rain = 0
KWVS 171407Z 33007KT 01/M05 A3015 RMK A01 T00051049  RH  067%=      5-min Rain = 0
KWVS 171408Z 33007KT 01/M05 A3015 RMK A01 T00051049  RH  067%=      5-min Rain = 0
KWVS 171409Z 33007KT 01/M05 A3016 RMK A01 T00051049  RH  067%=      5-min Rain = 0
KWVS 171410Z 33008KT 01/M05 A3016 RMK A01 T00051049  RH  067%=      5-min Rain = 0
KWVS 171411Z 33007KT 01/M05 A3016 RMK A01 T00061049  RH  067%=      5-min Rain = 0
KWVS 171412Z 33007KT 01/M05 A3016 RMK A01 T00061048  RH  067%=      5-min Rain = 0
KWVS 171413Z 33007KT 01/M05 A3016 RMK A01 T00061049  RH  066%=      5-min Rain = 0
KWVS 171414Z 33007KT 01/M05 A3016 RMK A01 T00071049  RH  066%=      5-min Rain = 0
KWVS 171415Z 33007KT 01/M05 A3016 RMK A01 T00081049  RH  066%=      5-min Rain = 0
KWVS 171416Z 33008KT 01/M05 A3016 RMK A01 T00081049  RH  066%=      5-min Rain = 0
KWVS 171417Z 33007KT 01/M05 A3016 RMK A01 T00081049  RH  066%=      5-min Rain = 0
KWVS 171418Z 33007KT 01/M05 A3016 RMK A01 T00091048  RH  066%=      5-min Rain = 0
KWVS 171419Z 33007KT 01/M05 A3016 RMK A01 T00081048  RH  066%=      5-min Rain = 0
KWVS 171420Z 33007KT 01/M05 A3016 RMK A01 T00081048  RH  066%=      5-min Rain = 0
KWVS 171421Z 33007KT 01/M05 A3016 RMK A01 T00081048  RH  066%=      5-min Rain = 0
KWVS 171422Z 33007KT 01/M05 A3016 RMK A01 T00081048  RH  066%=      5-min Rain = 0
KWVS 171423Z 33007KT 01/M05 A3016 RMK A01 T00081048  RH  066%=      5-min Rain = 0
KWVS 171424Z 33007KT 01/M05 A3016 RMK A01 T00081047  RH  066%=      5-min Rain = 0
KWVS 171425Z 33007KT 01/M05 A3016 RMK A01 T00091047  RH  066%=      5-min Rain = 0
KWVS 171426Z 33007KT 01/M05 A3016 RMK A01 T00091047  RH  066%=      5-min Rain = 0
KWVS 171427Z 33006KT 01/M05 A3016 RMK A01 T00091047  RH  066%=      5-min Rain = 0
KWVS 171428Z 33007KT 01/M05 A3016 RMK A01 T00101047  RH  066%=      5-min Rain = 0
KWVS 171429Z 33006KT 01/M05 A3016 RMK A01 T00101047  RH  065%=      5-min Rain = 0
KWVS 171430Z 32006KT 01/M05 A3016 RMK A01 T00111047  RH  065%=      5-min Rain = 0
KWVS 171431Z 33006KT 01/M05 A3016 RMK A01 T00111047  RH  065%=      5-min Rain = 0
KWVS 171432Z 33006KT 01/M05 A3016 RMK A01 T00111047  RH  065%=      5-min Rain = 0
KWVS 171433Z 32006KT 01/M05 A3016 RMK A01 T00111047  RH  065%=      5-min Rain = 0
KWVS 171434Z 33006KT 01/M05 A3016 RMK A01 T00111047  RH  065%=      5-min Rain = 0
KWVS 171435Z 33005KT 01/M05 A3016 RMK A01 T00121047  RH  065%=      5-min Rain = 0
KWVS 171436Z 33005KT 01/M05 A3016 RMK A01 T00121047  RH  065%=      5-min Rain = 0
KWVS 171437Z 33005KT 01/M05 A3016 RMK A01 T00121047  RH  065%=      5-min Rain = 0
KWVS 171438Z 33006KT 01/M05 A3016 RMK A01 T00121047  RH  065%=      5-min Rain = 0
KWVS 171439Z 33005KT 01/M05 A3016 RMK A01 T00131047  RH  064%=      5-min Rain = 0
KWVS 171440Z 33005KT 01/M05 A3016 RMK A01 T00131046  RH  065%=      5-min Rain = 0
KWVS 171441Z 33005KT 01/M05 A3016 RMK A01 T00131047  RH  064%=      5-min Rain = 0
KWVS 171442Z 33005KT 01/M05 A3016 RMK A01 T00141047  RH  064%=      5-min Rain = 0
KWVS 171443Z 33005KT 01/M05 A3016 RMK A01 T00141047  RH  064%=      5-min Rain = 0
KWVS 171444Z 33005KT 01/M05 A3016 RMK A01 T00141046  RH  064%=      5-min Rain = 0
KWVS 171445Z 33005KT 01/M05 A3016 RMK A01 T00141046  RH  064%=      5-min Rain = 0
KWVS 171446Z 33005KT 01/M05 A3016 RMK A01 T00141046  RH  064%=      5-min Rain = 0
KWVS 171447Z 33005KT 01/M05 A3016 RMK A01 T00141046  RH  064%=      5-min Rain = 0
KWVS 171448Z 32006KT 01/M05 A3016 RMK A01 T00141046  RH  064%=      5-min Rain = 0
KWVS 171449Z 33005KT 02/M05 A3016 RMK A01 T00151046  RH  064%=      5-min Rain = 0
KWVS 171450Z 33005KT 02/M05 A3016 RMK A01 T00161046  RH  064%=      5-min Rain = 0
KWVS 171451Z 33006KT 02/M05 A3017 RMK A01 T00161045  RH  064%=      5-min Rain = 0
KWVS 171452Z 33006KT 02/M05 A3017 RMK A01 T00161045  RH  064%=      5-min Rain = 0
KWVS 171453Z 33006KT 02/M05 A3017 RMK A01 T00161045  RH  064%=      5-min Rain = 0
KWVS 171454Z 33006KT 02/M05 A3017 RMK A01 T00171045  RH  064%=      5-min Rain = 0
KWVS 171455Z 33006KT 02/M05 A3017 RMK A01 T00171045  RH  064%=      5-min Rain = 0
KWVS 171456Z 33007KT 02/M05 A3017 RMK A01 T00171045  RH  064%=      5-min Rain = 0
KWVS 171457Z 33006KT 02/M05 A3017 RMK A01 T00171045  RH  063%=      5-min Rain = 0
KWVS 171458Z 33006KT 02/M05 A3017 RMK A01 T00181045  RH  063%=      5-min Rain = 0
KWVS 171459Z 33006KT 02/M04 A3017 RMK A01 T00181044  RH  063%=      5-min Rain = 0
KWVS 171500Z 32007KT 02/M04 A3017 RMK A01 T00181044  RH  064%=      5-min Rain = 0
KWVS 171501Z 33007KT 02/M04 A3017 RMK A01 T00191044  RH  063%=      5-min Rain = 0
KWVS 171502Z 33007KT 02/M04 A3017 RMK A01 T00191044  RH  063%=      5-min Rain = 0
KWVS 171503Z 33007KT 02/M04 A3017 RMK A01 T00201043  RH  063%=      5-min Rain = 0
KWVS 171504Z 32006KT 02/M04 A3017 RMK A01 T00201043  RH  063%=      5-min Rain = 0
KWVS 171505Z 33006KT 02/M04 A3017 RMK A01 T00201043  RH  063%=      5-min Rain = 0
KWVS 171506Z 33006KT 02/M04 A3017 RMK A01 T00211043  RH  063%=      5-min Rain = 0
KWVS 171507Z 33006KT 02/M04 A3017 RMK A01 T00221042  RH  063%=      5-min Rain = 0
KWVS 171508Z 33006KT 02/M04 A3017 RMK A01 T00221042  RH  062%=      5-min Rain = 0
KWVS 171509Z 33006KT 02/M04 A3017 RMK A01 T00231042  RH  062%=      5-min Rain = 0
KWVS 171510Z 33006KT 02/M04 A3017 RMK A01 T00231042  RH  062%=      5-min Rain = 0
KWVS 171511Z 33006KT 02/M04 A3017 RMK A01 T00241041  RH  062%=      5-min Rain = 0
KWVS 171512Z 33006KT 02/M04 A3017 RMK A01 T00241041  RH  062%=      5-min Rain = 0
KWVS 171513Z 33006KT 03/M04 A3017 RMK A01 T00251040  RH  062%=      5-min Rain = 0
KWVS 171514Z 33006KT 03/M04 A3018 RMK A01 T00251040  RH  062%=      5-min Rain = 0
KWVS 171515Z 33006KT 03/M04 A3018 RMK A01 T00261040  RH  062%=      5-min Rain = 0
KWVS 171516Z 33006KT 03/M04 A3018 RMK A01 T00261041  RH  061%=      5-min Rain = 0
KWVS 171517Z 33006KT 03/M04 A3018 RMK A01 T00271041  RH  061%=      5-min Rain = 0
KWVS 171518Z 33006KT 03/M04 A3018 RMK A01 T00281041  RH  060%=      5-min Rain = 0
KWVS 171519Z 33006KT 03/M04 A3018 RMK A01 T00291041  RH  060%=      5-min Rain = 0
KWVS 171520Z 34006KT 03/M04 A3018 RMK A01 T00291042  RH  059%=      5-min Rain = 0
KWVS 171521Z 34006KT 03/M04 A3018 RMK A01 T00301042  RH  059%=      5-min Rain = 0
KWVS 171522Z 34005KT 03/M04 A3018 RMK A01 T00311042  RH  059%=      5-min Rain = 0
KWVS 171523Z 34006KT 03/M04 A3018 RMK A01 T00311041  RH  059%=      5-min Rain = 0
KWVS 171524Z 34006KT 03/M04 A3018 RMK A01 T00311042  RH  059%=      5-min Rain = 0
KWVS 171525Z 34006KT 03/M04 A3018 RMK A01 T00321041  RH  059%=      5-min Rain = 0
KWVS 171526Z 34005KT 03/M04 A3018 RMK A01 T00321041  RH  059%=      5-min Rain = 0
KWVS 171527Z 34006KT 03/M04 A3018 RMK A01 T00331040  RH  059%=      5-min Rain = 0
KWVS 171528Z 35005KT 03/M04 A3018 RMK A01 T00341040  RH  059%=      5-min Rain = 0
KWVS 171529Z 35005KT 04/M04 A3018 RMK A01 T00351038  RH  059%=      5-min Rain = 0
KWVS 171530Z 34006KT 04/M04 A3018 RMK A01 T00361038  RH  058%=      5-min Rain = 0
KWVS 171531Z 35006KT 04/M04 A3018 RMK A01 T00371040  RH  057%=      5-min Rain = 0
KWVS 171532Z 35005KT 04/M04 A3018 RMK A01 T00371039  RH  057%=      5-min Rain = 0
KWVS 171533Z 34006KT 04/M04 A3018 RMK A01 T00381039  RH  057%=      5-min Rain = 0
KWVS 171534Z 35005KT 04/M04 A3018 RMK A01 T00381040  RH  057%=      5-min Rain = 0
KWVS 171535Z 34006KT 04/M04 A3018 RMK A01 T00381040  RH  056%=      5-min Rain = 0
KWVS 171536Z 35005KT 04/M04 A3018 RMK A01 T00391039  RH  057%=      5-min Rain = 0
KWVS 171537Z 35005KT 04/M04 A3018 RMK A01 T00391039  RH  057%=      5-min Rain = 0
KWVS 171538Z 35005KT 04/M04 A3018 RMK A01 T00391039  RH  057%=      5-min Rain = 0
KWVS 171539Z 34005KT 04/M04 A3018 RMK A01 T00401035  RH  058%=      5-min Rain = 0
KWVS 171540Z 34006KT 04/M04 A3018 RMK A01 T00411035  RH  058%=      5-min Rain = 0
KWVS 171541Z 34005KT 04/M04 A3018 RMK A01 T00411038  RH  056%=      5-min Rain = 0
KWVS 171542Z 35005KT 04/M04 A3018 RMK A01 T00411037  RH  057%=      5-min Rain = 0
KWVS 171543Z 35006KT 04/M04 A3018 RMK A01 T00421037  RH  057%=      5-min Rain = 0
KWVS 171544Z 35007KT 04/M04 A3018 RMK A01 T00421038  RH  056%=      5-min Rain = 0
KWVS 171545Z 35007KT 04/M04 A3018 RMK A01 T00421041  RH  055%=      5-min Rain = 0
KWVS 171546Z 35006KT 04/M04 A3018 RMK A01 T00421040  RH  055%=      5-min Rain = 0
KWVS 171547Z 35007KT 04/M04 A3018 RMK A01 T00421041  RH  055%=      5-min Rain = 0
KWVS 171548Z 35007KT 04/M04 A3018 RMK A01 T00421041  RH  055%=      5-min Rain = 0
KWVS 171549Z 35007KT 04/M04 A3018 RMK A01 T00421040  RH  055%=      5-min Rain = 0
KWVS 171550Z 35007KT 04/M04 A3018 RMK A01 T00431040  RH  055%=      5-min Rain = 0
KWVS 171551Z 35008KT 04/M04 A3018 RMK A01 T00431040  RH  055%=      5-min Rain = 0
KWVS 171552Z 35007KT 04/M04 A3018 RMK A01 T00431040  RH  055%=      5-min Rain = 0
KWVS 171553Z 36006KT 04/M04 A3018 RMK A01 T00421039  RH  055%=      5-min Rain = 0
KWVS 171554Z 35005KT 04/M04 A3018 RMK A01 T00441035  RH  056%=      5-min Rain = 0
KWVS 171555Z 35007KT 05/M04 A3018 RMK A01 T00451039  RH  054%=      5-min Rain = 0
KWVS 171556Z 35007KT 05/M04 A3018 RMK A01 T00461040  RH  054%=      5-min Rain = 0
KWVS 171557Z 35006KT 05/M04 A3018 RMK A01 T00461042  RH  053%=      5-min Rain = 0
KWVS 171558Z 35007KT 05/M04 A3019 RMK A01 T00461041  RH  053%=      5-min Rain = 0
KWVS 171559Z 35007KT 05/M04 A3019 RMK A01 T00471038  RH  054%=      5-min Rain = 0
KWVS 171600Z 35008KT 05/M04 A3019 RMK A01 T00481038  RH  053%=      5-min Rain = 0
KWVS 171601Z 35008KT 05/M04 A3019 RMK A01 T00491041  RH  052%=      5-min Rain = 0
KWVS 171602Z 35007KT 05/M04 A3019 RMK A01 T00491041  RH  052%=      5-min Rain = 0
KWVS 171603Z 35008KT 05/M04 A3019 RMK A01 T00501039  RH  053%=      5-min Rain = 0
KWVS 171604Z 35008KT 05/M04 A3019 RMK A01 T00511039  RH  052%=      5-min Rain = 0
KWVS 171605Z 35008KT 05/M04 A3019 RMK A01 T00511039  RH  052%=      5-min Rain = 0
KWVS 171606Z 35008KT 05/M04 A3019 RMK A01 T00521041  RH  051%=      5-min Rain = 0
KWVS 171607Z 35007KT 05/M04 A3019 RMK A01 T00521043  RH  050%=      5-min Rain = 0
KWVS 171608Z 36007KT 05/M04 A3019 RMK A01 T00511041  RH  051%=      5-min Rain = 0
KWVS 171609Z 35007KT 05/M04 A3019 RMK A01 T00521039  RH  052%=      5-min Rain = 0
KWVS 171610Z 36008KT 05/M04 A3019 RMK A01 T00541038  RH  052%=      5-min Rain = 0
KWVS 171611Z 36007KT 06/M04 A3019 RMK A01 T00551040  RH  051%=      5-min Rain = 0
KWVS 171612Z 35008KT 06/M04 A3019 RMK A01 T00561039  RH  051%=      5-min Rain = 0
KWVS 171613Z 00007KT 06/M04 A3019 RMK A01 T00561041  RH  050%=      5-min Rain = 0
KWVS 171614Z 35007KT 06/M04 A3019 RMK A01 T00561041  RH  049%=      5-min Rain = 0
KWVS 171615Z 36007KT 06/M04 A3019 RMK A01 T00561040  RH  050%=      5-min Rain = 0
KWVS 171616Z 36007KT 06/M04 A3019 RMK A01 T00581037  RH  050%=      5-min Rain = 0
KWVS 171617Z 00007KT 06/M04 A3019 RMK A01 T00591037  RH  050%=      5-min Rain = 0
KWVS 171618Z 00007KT 06/M04 A3019 RMK A01 T00601037  RH  050%=      5-min Rain = 0
KWVS 171619Z 00006KT 06/M04 A3019 RMK A01 T00611036  RH  050%=      5-min Rain = 0
KWVS 171620Z 36006KT 06/M04 A3019 RMK A01 T00621039  RH  048%=      5-min Rain = 0
KWVS 171621Z 01007KT 06/M04 A3019 RMK A01 T00621042  RH  047%=      5-min Rain = 0
KWVS 171622Z 01007KT 06/M04 A3019 RMK A01 T00621044  RH  046%=      5-min Rain = 0
KWVS 171623Z 00006KT 06/M05 A3019 RMK A01 T00621046  RH  046%=      5-min Rain = 0
KWVS 171624Z 01005KT 06/M04 A3019 RMK A01 T00631042  RH  047%=      5-min Rain = 0
KWVS 171625Z 01007KT 07/M04 A3019 RMK A01 T00651041  RH  047%=      5-min Rain = 0
KWVS 171626Z 01008KT 07/M04 A3019 RMK A01 T00661043  RH  046%=      5-min Rain = 0
KWVS 171627Z 01008KT 07/M05 A3019 RMK A01 T00661045  RH  045%=      5-min Rain = 0
KWVS 171628Z 01008KT 07/M04 A3019 RMK A01 T00651044  RH  046%=      5-min Rain = 0
KWVS 171629Z 01008KT 07/M05 A3019 RMK A01 T00661046  RH  045%=      5-min Rain = 0
KWVS 171630Z 02008KT 07/M04 A3019 RMK A01 T00671043  RH  045%=      5-min Rain = 0
KWVS 171631Z 02008KT 07/M04 A3019 RMK A01 T00691044  RH  045%=      5-min Rain = 0
KWVS 171632Z 02007KT 07/M04 A3019 RMK A01 T00691042  RH  045%=      5-min Rain = 0
KWVS 171633Z 01009KT 07/M04 A3019 RMK A01 T00711044  RH  044%=      5-min Rain = 0
KWVS 171634Z 01009KT 07/M05 A3019 RMK A01 T00711046  RH  043%=      5-min Rain = 0
KWVS 171635Z 02009KT 07/M05 A3019 RMK A01 T00711047  RH  043%=      5-min Rain = 0
KWVS 171636Z 01009KT 07/M04 A3019 RMK A01 T00701044  RH  044%=      5-min Rain = 0
KWVS 171637Z 02009KT 07/M05 A3019 RMK A01 T00701047  RH  043%=      5-min Rain = 0
KWVS 171638Z 02009KT 07/M04 A3019 RMK A01 T00711044  RH  044%=      5-min Rain = 0
KWVS 171639Z 02009G14KT 07/M04 A3019 RMK A01 T00711043  RH  044%=      5-min Rain = 0
KWVS 171640Z 01011KT 07/M05 A302 RMK A01 T00721048  RH  042%=      5-min Rain = 0
KWVS 171641Z 01009KT 07/M05 A302 RMK A01 T00721049  RH  042%=      5-min Rain = 0
KWVS 171642Z 01011KT 07/M05 A3019 RMK A01 T00721046  RH  043%=      5-min Rain = 0
KWVS 171643Z 01012KT 07/M05 A3019 RMK A01 T00711048  RH  042%=      5-min Rain = 0
KWVS 171644Z 02012KT 07/M05 A3019 RMK A01 T00711048  RH  042%=      5-min Rain = 0
KWVS 171645Z 01011KT 07/M05 A3019 RMK A01 T00711047  RH  043%=      5-min Rain = 0
KWVS 171646Z 01011KT 07/M05 A3019 RMK A01 T00701046  RH  043%=      5-min Rain = 0
KWVS 171647Z 01011KT 07/M05 A3019 RMK A01 T00701045  RH  044%=      5-min Rain = 0
KWVS 171648Z 01011KT 07/M05 A3019 RMK A01 T00701047  RH  043%=      5-min Rain = 0
KWVS 171649Z 01011KT 07/M05 A3019 RMK A01 T00701047  RH  043%=      5-min Rain = 0
KWVS 171650Z 36010KT 07/M05 A3019 RMK A01 T00701045  RH  044%=      5-min Rain = 0
KWVS 171651Z 01011KT 07/M04 A3019 RMK A01 T00711044  RH  044%=      5-min Rain = 0
KWVS 171652Z 01010KT 07/M05 A3019 RMK A01 T00711046  RH  043%=      5-min Rain = 0
KWVS 171653Z 01009KT 07/M04 A3019 RMK A01 T00701044  RH  044%=      5-min Rain = 0
KWVS 171654Z 36009KT 07/M04 A3019 RMK A01 T00711042  RH  045%=      5-min Rain = 0
KWVS 171655Z 36009KT 07/M04 A3019 RMK A01 T00731040  RH  045%=      5-min Rain = 0
KWVS 171656Z 00009KT 07/M04 A3019 RMK A01 T00741041  RH  044%=      5-min Rain = 0
KWVS 171657Z 00010KT 07/M04 A3019 RMK A01 T00741042  RH  044%=      5-min Rain = 0
KWVS 171658Z 00009KT 07/M04 A3019 RMK A01 T00731039  RH  045%=      5-min Rain = 0
KWVS 171659Z 01008KT 07/M04 A3019 RMK A01 T00731038  RH  045%=      5-min Rain = 0
KWVS 171700Z 36009KT 07/M04 A3019 RMK A01 T00741037  RH  045%=      5-min Rain = 0
KWVS 171701Z 00009KT 08/M04 A3019 RMK A01 T00751038  RH  045%=      5-min Rain = 0
KWVS 171702Z 01009KT 08/M04 A3019 RMK A01 T00751035  RH  045%=      5-min Rain = 0
KWVS 171703Z 01008KT 08/M04 A3019 RMK A01 T00761040  RH  044%=      5-min Rain = 0
KWVS 171704Z 02007KT 08/M04 A3019 RMK A01 T00751036  RH  045%=      5-min Rain = 0
KWVS 171705Z 36008KT 08/M04 A3019 RMK A01 T00751037  RH  045%=      5-min Rain = 0
KWVS 171706Z 36008KT 08/M04 A3019 RMK A01 T00751036  RH  045%=      5-min Rain = 0
KWVS 171707Z 36010KT 07/M04 A3019 RMK A01 T00741035  RH  046%=      5-min Rain = 0
KWVS 171708Z 01011KT 08/M04 A3019 RMK A01 T00751037  RH  045%=      5-min Rain = 0
KWVS 171709Z 02009KT 08/M04 A3019 RMK A01 T00761044  RH  042%=      5-min Rain = 0
KWVS 171710Z 01007KT 08/M04 A3019 RMK A01 T00751038  RH  045%=      5-min Rain = 0
KWVS 171711Z 00009KT 08/M04 A3019 RMK A01 T00761037  RH  044%=      5-min Rain = 0
KWVS 171712Z 00009KT 08/M03 A3019 RMK A01 T00791034  RH  045%=      5-min Rain = 0
KWVS 171713Z 02009KT 08/M04 A3019 RMK A01 T00791036  RH  044%=      5-min Rain = 0
KWVS 171714Z 02010KT 08/M04 A3019 RMK A01 T00801036  RH  044%=      5-min Rain = 0
KWVS 171715Z 03013KT 08/M04 A3019 RMK A01 T00811044  RH  041%=      5-min Rain = 0
KWVS 171716Z 02011KT 08/M05 A3019 RMK A01 T00801049  RH  040%=      5-min Rain = 0
KWVS 171717Z 02009KT 08/M05 A3018 RMK A01 T00791046  RH  041%=      5-min Rain = 0
KWVS 171718Z 02009KT 08/M04 A3018 RMK A01 T00811038  RH  043%=      5-min Rain = 0
KWVS 171719Z 02011G16KT 08/M04 A3018 RMK A01 T00831043  RH  040%=      5-min Rain = 0
KWVS 171720Z 03011KT 08/M05 A3018 RMK A01 T00841045  RH  040%=      5-min Rain = 0
KWVS 171721Z 02010KT 08/M05 A3018 RMK A01 T00821046  RH  040%=      5-min Rain = 0
KWVS 171722Z 02010KT 08/M04 A3018 RMK A01 T00821044  RH  041%=      5-min Rain = 0
KWVS 171723Z 03011KT 08/M04 A3018 RMK A01 T00831043  RH  041%=      5-min Rain = 0
KWVS 171724Z 02010KT 08/M04 A3018 RMK A01 T00831043  RH  041%=      5-min Rain = 0
KWVS 171725Z 03008KT 09/M04 A3018 RMK A01 T00851038  RH  042%=      5-min Rain = 0
KWVS 171726Z 02007KT 09/M04 A3019 RMK A01 T00871040  RH  040%=      5-min Rain = 0
KWVS 171727Z 03010G17KT 09/M04 A3018 RMK A01 T00881038  RH  041%=      5-min Rain = 0
KWVS 171728Z 03011KT 09/M04 A3018 RMK A01 T00891043  RH  039%=      5-min Rain = 0
KWVS 171729Z 03010KT 09/M04 A3018 RMK A01 T00891044  RH  039%=      5-min Rain = 0
KWVS 171730Z 02011KT 09/M04 A3018 RMK A01 T00881043  RH  039%=      5-min Rain = 0
KWVS 171731Z 02010KT 09/M05 A3018 RMK A01 T00881047  RH  038%=      5-min Rain = 0
KWVS 171732Z 02008KT 09/M05 A3018 RMK A01 T00871045  RH  039%=      5-min Rain = 0
KWVS 171733Z 02010KT 09/M04 A3018 RMK A01 T00881043  RH  040%=      5-min Rain = 0
KWVS 171734Z 04011KT 09/M05 A3018 RMK A01 T00881047  RH  038%=      5-min Rain = 0
KWVS 171735Z 04010KT 09/M05 A3018 RMK A01 T00881048  RH  038%=      5-min Rain = 0
KWVS 171736Z 04009KT 09/M05 A3018 RMK A01 T00871047  RH  038%=      5-min Rain = 0
KWVS 171737Z 03008KT 09/M04 A3018 RMK A01 T00871044  RH  039%=      5-min Rain = 0
KWVS 171738Z 05007G12KT 09/M04 A3018 RMK A01 T00891043  RH  039%=      5-min Rain = 0
KWVS 171739Z 02008G13KT 09/M04 A3018 RMK A01 T00891043  RH  039%=      5-min Rain = 0
KWVS 171740Z 06006KT 09/M04 A3018 RMK A01 T00911038  RH  040%=      5-min Rain = 0
KWVS 171741Z 04010KT 09/M04 A3018 RMK A01 T00931043  RH  038%=      5-min Rain = 0
KWVS 171742Z 03008KT 09/M05 A3018 RMK A01 T00931047  RH  037%=      5-min Rain = 0
KWVS 171743Z 03006KT 09/M05 A3018 RMK A01 T00911047  RH  037%=      5-min Rain = 0
KWVS 171744Z 04008KT 09/M04 A3018 RMK A01 T00921040  RH  039%=      5-min Rain = 0
KWVS 171745Z 04007KT 09/M04 A3018 RMK A01 T00931044  RH  038%=      5-min Rain = 0
KWVS 171746Z 06007KT 09/M04 A3018 RMK A01 T00931044  RH  038%=      5-min Rain = 0
KWVS 171747Z 05008KT 09/M05 A3018 RMK A01 T00931049  RH  036%=      5-min Rain = 0
KWVS 171748Z 05009KT 09/M05 A3017 RMK A01 T00931053  RH  035%=      5-min Rain = 0
KWVS 171749Z 05009KT 09/M05 A3017 RMK A01 T00921052  RH  036%=      5-min Rain = 0
KWVS 171750Z 04007KT 09/M06 A3017 RMK A01 T00901055  RH  036%=      5-min Rain = 0
KWVS 171751Z 03008KT 09/M05 A3017 RMK A01 T00891050  RH  037%=      5-min Rain = 0
KWVS 171752Z 05009KT 09/M05 A3017 RMK A01 T00901046  RH  038%=      5-min Rain = 0
KWVS 171753Z 06007KT 09/M05 A3017 RMK A01 T00911052  RH  036%=      5-min Rain = 0
KWVS 171754Z 03006KT 09/M05 A3017 RMK A01 T00901052  RH  036%=      5-min Rain = 0
KWVS 171755Z 03007KT 09/M04 A3017 RMK A01 T00921043  RH  038%=      5-min Rain = 0
KWVS 171756Z 03007KT 09/M05 A3017 RMK A01 T00941045  RH  037%=      5-min Rain = 0
KWVS 171757Z 02008KT 09/M05 A3018 RMK A01 T00931045  RH  037%=      5-min Rain = 0
KWVS 171758Z 03008KT 09/M05 A3018 RMK A01 T00941045  RH  037%=      5-min Rain = 0
KWVS 171759Z 05009KT 10/M05 A3017 RMK A01 T00961048  RH  036%=      5-min Rain = 0
KWVS 171800Z 04009KT 10/M05 A3017 RMK A01 T00951049  RH  036%=      5-min Rain = 0
KWVS 171801Z 05007KT 09/M05 A3017 RMK A01 T00941048  RH  036%=      5-min Rain = 0
KWVS 171802Z 03008KT 09/M05 A3017 RMK A01 T00941048  RH  036%=      5-min Rain = 0
KWVS 171803Z 05006KT 09/M05 A3017 RMK A01 T00931045  RH  037%=      5-min Rain = 0
KWVS 171804Z 06007KT 10/M05 A3017 RMK A01 T00951046  RH  037%=      5-min Rain = 0
KWVS 171805Z 05009KT 10/M05 A3017 RMK A01 T00961049  RH  036%=      5-min Rain = 0
KWVS 171806Z 05009KT 10/M05 A3017 RMK A01 T00961048  RH  036%=      5-min Rain = 0
KWVS 171807Z 05004KT 10/M05 A3017 RMK A01 T00951054  RH  034%=      5-min Rain = 0
KWVS 171808Z 05006KT 09/M05 A3017 RMK A01 T00941050  RH  036%=      5-min Rain = 0
KWVS 171809Z 05007KT 10/M05 A3017 RMK A01 T00951047  RH  036%=      5-min Rain = 0
KWVS 171810Z 05006KT 10/M05 A3017 RMK A01 T00951050  RH  035%=      5-min Rain = 0
KWVS 171811Z 02008KT 10/M05 A3017 RMK A01 T00951049  RH  036%=      5-min Rain = 0
KWVS 171812Z 02009KT 10/M05 A3017 RMK A01 T00951051  RH  035%=      5-min Rain = 0
KWVS 171813Z 03005KT 09/M06 A3017 RMK A01 T00931056  RH  034%=      5-min Rain = 0
KWVS 171814Z 04005G10KT 09/M05 A3017 RMK A01 T00931048  RH  037%=      5-min Rain = 0
KWVS 171815Z 04006KT 10/M04 A3017 RMK A01 T00961043  RH  037%=      5-min Rain = 0
KWVS 171816Z 04006KT 10/M05 A3017 RMK A01 T00981045  RH  036%=      5-min Rain = 0
KWVS 171817Z 02007KT 10/M04 A3017 RMK A01 T00991044  RH  036%=      5-min Rain = 0
KWVS 171818Z 01006KT 10/M05 A3017 RMK A01 T00991052  RH  034%=      5-min Rain = 0
KWVS 171819Z 03007KT 10/M05 A3017 RMK A01 T00971053  RH  034%=      5-min Rain = 0
KWVS 171820Z 04008KT 10/M05 A3017 RMK A01 T00961051  RH  035%=      5-min Rain = 0
KWVS 171821Z 05005G10KT 10/M05 A3017 RMK A01 T00951052  RH  035%=      5-min Rain = 0
KWVS 171822Z 02002KT 10/M05 A3017 RMK A01 T00951053  RH  035%=      5-min Rain = 0
KWVS 171823Z 02008KT 10/M05 A3016 RMK A01 T00951053  RH  035%=      5-min Rain = 0
KWVS 171824Z 01007KT 10/M05 A3016 RMK A01 T00961047  RH  036%=      5-min Rain = 0
KWVS 171825Z 02008KT 10/M04 A3016 RMK A01 T00991044  RH  036%=      5-min Rain = 0
KWVS 171826Z 02006KT 10/M05 A3016 RMK A01 T01001050  RH  034%=      5-min Rain = 0
KWVS 171827Z 01006KT 10/M05 A3016 RMK A01 T00991050  RH  035%=      5-min Rain = 0
KWVS 171828Z 36004KT 10/M05 A3016 RMK A01 T00981051  RH  035%=      5-min Rain = 0
KWVS 171829Z 00002KT 10/M05 A3016 RMK A01 T00981052  RH  034%=      5-min Rain = 0
KWVS 171830Z 01003G8KT 10/M05 A3016 RMK A01 T00981048  RH  035%=      5-min Rain = 0
KWVS 171831Z 01007KT 10/M04 A3016 RMK A01 T01011043  RH  036%=      5-min Rain = 0
KWVS 171832Z 00009KT 10/M05 A3016 RMK A01 T01031046  RH  035%=      5-min Rain = 0
KWVS 171833Z 02007KT 10/M05 A3016 RMK A01 T01011050  RH  034%=      5-min Rain = 0
KWVS 171834Z 03006KT 10/M04 A3016 RMK A01 T01011041  RH  037%=      5-min Rain = 0
KWVS 171835Z 03005KT 10/M05 A3016 RMK A01 T01021048  RH  034%=      5-min Rain = 0
KWVS 171836Z 02003KT 10/M05 A3016 RMK A01 T00991054  RH  033%=      5-min Rain = 0
KWVS 171837Z 03002KT 10/M06 A3016 RMK A01 T00971059  RH  033%=      5-min Rain = 0
KWVS 171838Z 08001KT 10/M06 A3015 RMK A01 T00961056  RH  034%=      5-min Rain = 0
KWVS 171839Z 07003KT 10/M05 A3015 RMK A01 T00971048  RH  036%=      5-min Rain = 0
KWVS 171840Z 03003KT 10/M05 A3015 RMK A01 T01001051  RH  034%=      5-min Rain = 0
KWVS 171841Z 06003KT 10/M05 A3015 RMK A01 T01001051  RH  034%=      5-min Rain = 0
KWVS 171842Z 07004KT 10/M05 A3015 RMK A01 T01011049  RH  034%=      5-min Rain = 0
KWVS 171843Z 08005KT 10/M04 A3015 RMK A01 T01031043  RH  035%=      5-min Rain = 0
KWVS 171844Z 10006KT 11/M05 A3015 RMK A01 T01051049  RH  034%=      5-min Rain = 0
KWVS 171845Z 08005KT 10/M05 A3015 RMK A01 T01021053  RH  033%=      5-min Rain = 0
KWVS 171846Z 06003KT 10/M05 A3014 RMK A01 T01011051  RH  034%=      5-min Rain = 0
KWVS 171847Z 08004KT 10/M05 A3014 RMK A01 T01021051  RH  034%=      5-min Rain = 0
KWVS 171848Z 00003KT 10/M05 A3014 RMK A01 T01021051  RH  034%=      5-min Rain = 0
KWVS 171849Z 01002KT 10/M06 A3014 RMK A01 T01011055  RH  033%=      5-min Rain = 0
KWVS 171850Z 04003KT 10/M06 A3014 RMK A01 T00991056  RH  033%=      5-min Rain = 0
KWVS 171851Z 03003KT 10/M05 A3014 RMK A01 T00991052  RH  034%=      5-min Rain = 0
KWVS 171852Z 02002KT 10/M05 A3014 RMK A01 T01001051  RH  034%=      5-min Rain = 0
KWVS 171853Z 05003KT 10/M05 A3014 RMK A01 T01011050  RH  034%=      5-min Rain = 0
KWVS 171854Z 08003KT 10/M05 A3014 RMK A01 T01011054  RH  033%=      5-min Rain = 0
KWVS 171855Z 08003KT 10/M06 A3014 RMK A01 T01001056  RH  033%=      5-min Rain = 0
KWVS 171856Z 07003KT 10/M06 A3014 RMK A01 T01001056  RH  033%=      5-min Rain = 0
KWVS 171857Z 07003KT 10/M06 A3014 RMK A01 T00991055  RH  033%=      5-min Rain = 0
KWVS 171858Z 06002KT 10/M06 A3014 RMK A01 T00991055  RH  033%=      5-min Rain = 0
KWVS 171859Z 08001KT 10/M06 A3013 RMK A01 T01001056  RH  033%=      5-min Rain = 0
KWVS 171900Z 08001KT 10/M05 A3013 RMK A01 T01011054  RH  033%=      5-min Rain = 0
KWVS 171901Z 10002KT 10/M05 A3013 RMK A01 T01031053  RH  033%=      5-min Rain = 0
KWVS 171902Z 10002KT 10/M06 A3013 RMK A01 T01041057  RH  032%=      5-min Rain = 0
KWVS 171903Z 14001KT 10/M05 A3013 RMK A01 T01041054  RH  032%=      5-min Rain = 0
KWVS 171904Z 13000KT 11/M05 A3013 RMK A01 T01051054  RH  032%=      5-min Rain = 0
KWVS 171905Z 36000KT 11/M05 A3013 RMK A01 T01081048  RH  033%=      5-min Rain = 0
KWVS 171906Z 00003KT 11/M05 A3013 RMK A01 T01111045  RH  033%=      5-min Rain = 0
KWVS 171907Z 00004KT 11/M04 A3013 RMK A01 T01121044  RH  033%=      5-min Rain = 0
KWVS 171908Z 01006KT 11/M05 A3013 RMK A01 T01101049  RH  032%=      5-min Rain = 0
KWVS 171909Z 01004KT 11/M05 A3013 RMK A01 T01061046  RH  034%=      5-min Rain = 0
KWVS 171910Z 02002KT 11/M05 A3013 RMK A01 T01061050  RH  033%=      5-min Rain = 0
KWVS 171911Z 00002KT 10/M05 A3013 RMK A01 T01041051  RH  033%=      5-min Rain = 0
KWVS 171912Z 03003KT 10/M05 A3013 RMK A01 T01041051  RH  033%=      5-min Rain = 0
KWVS 171913Z 02002KT 10/M05 A3013 RMK A01 T01041048  RH  034%=      5-min Rain = 0
KWVS 171914Z 04004KT 10/M05 A3013 RMK A01 T01041047  RH  034%=      5-min Rain = 0
KWVS 171915Z 09002KT 11/M05 A3013 RMK A01 T01061045  RH  034%=      5-min Rain = 0
KWVS 171916Z 06004KT 11/M05 A3012 RMK A01 T01071047  RH  034%=      5-min Rain = 0
KWVS 171917Z 07003KT 11/M05 A3012 RMK A01 T01061053  RH  032%=      5-min Rain = 0
KWVS 171918Z 10004KT 10/M05 A3012 RMK A01 T01041050  RH  033%=      5-min Rain = 0
KWVS 171919Z 10004KT 11/M05 A3012 RMK A01 T01051050  RH  033%=      5-min Rain = 0
KWVS 171920Z 09004KT 11/M05 A3012 RMK A01 T01061050  RH  033%=      5-min Rain = 0
KWVS 171921Z 11002KT 11/M05 A3012 RMK A01 T01061052  RH  033%=      5-min Rain = 0
KWVS 171922Z 15001KT 11/M06 A3012 RMK A01 T01051056  RH  032%=      5-min Rain = 0
KWVS 171923Z 14001KT 11/M06 A3012 RMK A01 T01051055  RH  032%=      5-min Rain = 0
KWVS 171924Z 10004KT 11/M05 A3012 RMK A01 T01051052  RH  033%=      5-min Rain = 0
KWVS 171925Z 12003KT 11/M05 A3012 RMK A01 T01061053  RH  032%=      5-min Rain = 0
KWVS 171926Z 11002KT 11/M05 A3012 RMK A01 T01051053  RH  032%=      5-min Rain = 0
KWVS 171927Z 12002KT 11/M05 A3011 RMK A01 T01051049  RH  033%=      5-min Rain = 0
KWVS 171928Z 18003KT 11/M05 A3011 RMK A01 T01081048  RH  033%=      5-min Rain = 0
KWVS 171929Z 15004KT 11/M05 A3011 RMK A01 T01091052  RH  032%=      5-min Rain = 0
KWVS 171930Z 08005KT 11/M05 A3011 RMK A01 T01101047  RH  033%=      5-min Rain = 0
KWVS 171931Z 06005KT 11/M05 A3011 RMK A01 T01111045  RH  033%=      5-min Rain = 0
KWVS 171932Z 05005KT 11/M05 A3011 RMK A01 T01101048  RH  033%=      5-min Rain = 0
KWVS 171933Z 04004KT 11/M05 A3011 RMK A01 T01061049  RH  033%=      5-min Rain = 0
KWVS 171934Z 09004KT 11/M05 A3011 RMK A01 T01061048  RH  034%=      5-min Rain = 0
KWVS 171935Z 11005KT 11/M05 A3011 RMK A01 T01061049  RH  033%=      5-min Rain = 0
KWVS 171936Z 12006KT 11/M05 A3011 RMK A01 T01071052  RH  032%=      5-min Rain = 0
KWVS 171937Z 15003KT 11/M05 A3011 RMK A01 T01061053  RH  032%=      5-min Rain = 0
KWVS 171938Z 17002KT 11/M05 A3011 RMK A01 T01061054  RH  032%=      5-min Rain = 0
KWVS 171939Z 19002KT 11/M05 A3011 RMK A01 T01071049  RH  033%=      5-min Rain = 0
KWVS 171940Z 22001KT 11/M05 A3011 RMK A01 T01091050  RH  032%=      5-min Rain = 0
KWVS 171941Z 18001KT 11/M05 A3011 RMK A01 T01101050  RH  032%=      5-min Rain = 0
KWVS 171942Z 20001KT 11/M05 A3011 RMK A01 T01111051  RH  032%=      5-min Rain = 0
KWVS 171943Z 21001KT 11/M06 A301 RMK A01 T01111055  RH  031%=      5-min Rain = 0
KWVS 171944Z 23000KT 11/M06 A301 RMK A01 T01101055  RH  031%=      5-min Rain = 0
KWVS 171945Z 08001KT 11/M05 A301 RMK A01 T01101050  RH  032%=      5-min Rain = 0
KWVS 171946Z 09003KT 11/M05 A301 RMK A01 T01101049  RH  032%=      5-min Rain = 0
KWVS 171947Z 13002KT 11/M05 A301 RMK A01 T01101048  RH  033%=      5-min Rain = 0
KWVS 171948Z 15002KT 11/M05 A3009 RMK A01 T01101049  RH  032%=      5-min Rain = 0
KWVS 171949Z 13001KT 11/M05 A3009 RMK A01 T01091048  RH  033%=      5-min Rain = 0
KWVS 171950Z 31000KT 11/M05 A301 RMK A01 T01101051  RH  032%=      5-min Rain = 0
KWVS 171951Z 10005G10KT 11/M05 A3009 RMK A01 T01091048  RH  033%=      5-min Rain = 0
KWVS 171952Z 16005KT 11/M05 A301 RMK A01 T01101047  RH  033%=      5-min Rain = 0
KWVS 171953Z 15005KT 11/M05 A301 RMK A01 T01131045  RH  033%=      5-min Rain = 0
KWVS 171954Z 15004KT 12/M05 A301 RMK A01 T01151049  RH  032%=      5-min Rain = 0
KWVS 171955Z 15004KT 12/M05 A301 RMK A01 T01151050  RH  031%=      5-min Rain = 0
KWVS 171956Z 14005KT 12/M05 A301 RMK A01 T01151047  RH  032%=      5-min Rain = 0
KWVS 171957Z 15007KT 12/M05 A301 RMK A01 T01161046  RH  032%=      5-min Rain = 0
KWVS 171958Z 15005KT 12/M05 A301 RMK A01 T01161052  RH  030%=      5-min Rain = 0
KWVS 171959Z 14003G8KT 11/M06 A301 RMK A01 T01141055  RH  030%=      5-min Rain = 0
KWVS 172000Z 15007KT 11/M05 A301 RMK A01 T01121051  RH  031%=      5-min Rain = 0
KWVS 172001Z 14005KT 11/M05 A301 RMK A01 T01121053  RH  031%=      5-min Rain = 0
KWVS 172002Z 14004KT 11/M05 A301 RMK A01 T01121052  RH  031%=      5-min Rain = 0
KWVS 172003Z 13004KT 11/M05 A3009 RMK A01 T01121054  RH  031%=      5-min Rain = 0
KWVS 172004Z 15004KT 11/M05 A3009 RMK A01 T01131048  RH  032%=      5-min Rain = 0
KWVS 172005Z 09007KT 12/M04 A3009 RMK A01 T01161043  RH  033%=      5-min Rain = 0
KWVS 172006Z 06004KT 12/M05 A3009 RMK A01 T01171047  RH  031%=      5-min Rain = 0
KWVS 172007Z 05005KT 11/M05 A3009 RMK A01 T01141050  RH  031%=      5-min Rain = 0
KWVS 172008Z 06005KT 11/M05 A3009 RMK A01 T01111051  RH  032%=      5-min Rain = 0
KWVS 172009Z 10006KT 11/M04 A3009 RMK A01 T01111041  RH  034%=      5-min Rain = 0
KWVS 172010Z 06004KT 12/M04 A3009 RMK A01 T01151040  RH  033%=      5-min Rain = 0
KWVS 172011Z 10004KT 12/M05 A301 RMK A01 T01161048  RH  032%=      5-min Rain = 0
KWVS 172012Z 11003KT 11/M05 A301 RMK A01 T01141049  RH  032%=      5-min Rain = 0
KWVS 172013Z 13005KT 11/M05 A301 RMK A01 T01131050  RH  032%=      5-min Rain = 0
KWVS 172014Z 13004KT 11/M05 A301 RMK A01 T01141048  RH  032%=      5-min Rain = 0
KWVS 172015Z 14003KT 12/M05 A301 RMK A01 T01151049  RH  031%=      5-min Rain = 0
KWVS 172016Z 14002KT 12/M06 A301 RMK A01 T01151056  RH  030%=      5-min Rain = 0
KWVS 172017Z 10002KT 11/M06 A301 RMK A01 T01141056  RH  030%=      5-min Rain = 0
KWVS 172018Z 07002KT 11/M06 A301 RMK A01 T01121055  RH  031%=      5-min Rain = 0
KWVS 172019Z 08002KT 11/M05 A301 RMK A01 T01121048  RH  032%=      5-min Rain = 0
KWVS 172020Z 10001KT 11/M06 A301 RMK A01 T01111055  RH  031%=      5-min Rain = 0
KWVS 172021Z 05002KT 11/M05 A301 RMK A01 T01111053  RH  031%=      5-min Rain = 0
KWVS 172022Z 01002KT 11/M05 A301 RMK A01 T01101053  RH  031%=      5-min Rain = 0
KWVS 172023Z 10003KT 11/M05 A301 RMK A01 T01091050  RH  032%=      5-min Rain = 0
KWVS 172024Z 06004KT 11/M05 A301 RMK A01 T01111049  RH  032%=      5-min Rain = 0
KWVS 172025Z 09005KT 11/M05 A301 RMK A01 T01121046  RH  033%=      5-min Rain = 0
KWVS 172026Z 09005KT 11/M05 A301 RMK A01 T01131047  RH  032%=      5-min Rain = 0
KWVS 172027Z 07004KT 11/M05 A301 RMK A01 T01131049  RH  032%=      5-min Rain = 0
KWVS 172028Z 06004KT 11/M05 A301 RMK A01 T01131045  RH  033%=      5-min Rain = 0
KWVS 172029Z 03003KT 11/M05 A301 RMK A01 T01131051  RH  031%=      5-min Rain = 0
KWVS 172030Z 04002KT 11/M05 A301 RMK A01 T01131046  RH  033%=      5-min Rain = 0
KWVS 172031Z 06003KT 11/M05 A301 RMK A01 T01131048  RH  032%=      5-min Rain = 0
KWVS 172032Z 05006KT 11/M05 A301 RMK A01 T01131050  RH  032%=      5-min Rain = 0
KWVS 172033Z 04007KT 11/M05 A301 RMK A01 T01121049  RH  032%=      5-min Rain = 0
KWVS 172034Z 03005KT 11/M05 A301 RMK A01 T01101051  RH  032%=      5-min Rain = 0
KWVS 172035Z 35003KT 11/M05 A301 RMK A01 T01081051  RH  032%=      5-min Rain = 0
KWVS 172036Z 34003KT 11/M05 A301 RMK A01 T01081052  RH  032%=      5-min Rain = 0
KWVS 172037Z 06004KT 11/M05 A301 RMK A01 T01081051  RH  032%=      5-min Rain = 0
KWVS 172038Z 04005KT 11/M05 A301 RMK A01 T01081051  RH  032%=      5-min Rain = 0
KWVS 172039Z 03003KT 11/M05 A301 RMK A01 T01081051  RH  032%=      5-min Rain = 0
KWVS 172040Z 03004KT 11/M05 A301 RMK A01 T01081046  RH  034%=      5-min Rain = 0
KWVS 172041Z 04002KT 11/M05 A301 RMK A01 T01091054  RH  031%=      5-min Rain = 0
KWVS 172042Z 03001KT 11/M05 A301 RMK A01 T01081049  RH  033%=      5-min Rain = 0
KWVS 172043Z 26001KT 11/M05 A301 RMK A01 T01101053  RH  031%=      5-min Rain = 0
KWVS 172044Z 24002KT 11/M05 A301 RMK A01 T01111054  RH  031%=      5-min Rain = 0
KWVS 172045Z 25002KT 11/M05 A301 RMK A01 T01111051  RH  032%=      5-min Rain = 0
KWVS 172046Z 12002KT 11/M05 A301 RMK A01 T01121047  RH  033%=      5-min Rain = 0
KWVS 172047Z 10005KT 12/M05 A301 RMK A01 T01151046  RH  032%=      5-min Rain = 0
KWVS 172048Z 11004KT 12/M05 A301 RMK A01 T01151053  RH  030%=      5-min Rain = 0
KWVS 172049Z 12003KT 11/M05 A301 RMK A01 T01121052  RH  031%=      5-min Rain = 0
KWVS 172050Z 13004KT 11/M05 A301 RMK A01 T01121053  RH  031%=      5-min Rain = 0
KWVS 172051Z 13004KT 11/M05 A301 RMK A01 T01121054  RH  031%=      5-min Rain = 0
KWVS 172052Z 15003KT 11/M06 A301 RMK A01 T01121057  RH  030%=      5-min Rain = 0
KWVS 172053Z 16002KT 11/M05 A301 RMK A01 T01121054  RH  031%=      5-min Rain = 0
KWVS 172054Z 18003KT 11/M06 A301 RMK A01 T01121055  RH  031%=      5-min Rain = 0
KWVS 172055Z 19003KT 11/M06 A301 RMK A01 T01121055  RH  031%=      5-min Rain = 0
KWVS 172056Z 23001KT 11/M05 A301 RMK A01 T01111053  RH  031%=      5-min Rain = 0
KWVS 172057Z 23002KT 11/M05 A301 RMK A01 T01111053  RH  031%=      5-min Rain = 0
KWVS 172058Z 26002KT 11/M05 A301 RMK A01 T01121052  RH  031%=      5-min Rain = 0
KWVS 172059Z 27002KT 11/M05 A301 RMK A01 T01131051  RH  031%=      5-min Rain = 0
KWVS 172100Z 25003KT 11/M05 A301 RMK A01 T01131050  RH  032%=      5-min Rain = 0
KWVS 172101Z 25003KT 11/M05 A301 RMK A01 T01141049  RH  032%=      5-min Rain = 0
KWVS 172102Z 25001KT 11/M05 A301 RMK A01 T01141051  RH  031%=      5-min Rain = 0
KWVS 172103Z 06000KT 12/M05 A301 RMK A01 T01151052  RH  031%=      5-min Rain = 0
KWVS 172104Z 03001KT 12/M05 A301 RMK A01 T01151048  RH  032%=      5-min Rain = 0
KWVS 172105Z 33003KT 12/M05 A301 RMK A01 T01161048  RH  031%=      5-min Rain = 0
KWVS 172106Z 01004KT 12/M05 A301 RMK A01 T01171048  RH  031%=      5-min Rain = 0
KWVS 172107Z 03005KT 12/M05 A301 RMK A01 T01161046  RH  032%=      5-min Rain = 0
KWVS 172108Z 04005KT 12/M05 A301 RMK A01 T01151048  RH  032%=      5-min Rain = 0
KWVS 172109Z 01006KT 11/M05 A301 RMK A01 T01141045  RH  032%=      5-min Rain = 0
KWVS 172110Z 01005KT 11/M04 A301 RMK A01 T01141044  RH  033%=      5-min Rain = 0
KWVS 172111Z 03004KT 12/M05 A301 RMK A01 T01151048  RH  032%=      5-min Rain = 0
KWVS 172112Z 05005KT 11/M04 A301 RMK A01 T01141044  RH  033%=      5-min Rain = 0
KWVS 172113Z 07004KT 12/M05 A301 RMK A01 T01151049  RH  031%=      5-min Rain = 0
KWVS 172114Z 06004KT 11/M05 A301 RMK A01 T01141053  RH  031%=      5-min Rain = 0
KWVS 172115Z 05003KT 11/M05 A301 RMK A01 T01131052  RH  031%=      5-min Rain = 0
KWVS 172116Z 03001KT 11/M06 A301 RMK A01 T01121055  RH  031%=      5-min Rain = 0
KWVS 172117Z 04005KT 11/M05 A301 RMK A01 T01111050  RH  032%=      5-min Rain = 0
KWVS 172118Z 04004KT 11/M05 A301 RMK A01 T01111052  RH  032%=      5-min Rain = 0
KWVS 172119Z 02003KT 11/M05 A301 RMK A01 T01101054  RH  031%=      5-min Rain = 0
KWVS 172120Z 34003KT 11/M05 A301 RMK A01 T01101052  RH  032%=      5-min Rain = 0
KWVS 172121Z 33002KT 11/M05 A301 RMK A01 T01111051  RH  032%=      5-min Rain = 0
KWVS 172122Z 00002KT 11/M05 A301 RMK A01 T01121051  RH  032%=      5-min Rain = 0
KWVS 172123Z 08002KT 11/M05 A301 RMK A01 T01131051  RH  031%=      5-min Rain = 0
KWVS 172124Z 09005G10KT 11/M05 A301 RMK A01 T01141049  RH  032%=      5-min Rain = 0
KWVS 172125Z 09004KT 12/M05 A301 RMK A01 T01161048  RH  031%=      5-min Rain = 0
KWVS 172126Z 08003KT 12/M05 A301 RMK A01 T01161048  RH  031%=      5-min Rain = 0
KWVS 172127Z 10004KT 12/M05 A301 RMK A01 T01171049  RH  031%=      5-min Rain = 0
KWVS 172128Z 11006KT 12/M05 A301 RMK A01 T01171048  RH  031%=      5-min Rain = 0
KWVS 172129Z 10002KT 12/M05 A301 RMK A01 T01171052  RH  030%=      5-min Rain = 0
KWVS 172130Z 16001KT 12/M06 A301 RMK A01 T01151055  RH  030%=      5-min Rain = 0
KWVS 172131Z 12003KT 12/M05 A301 RMK A01 T01161052  RH  031%=      5-min Rain = 0
KWVS 172132Z 10003KT 12/M05 A301 RMK A01 T01171053  RH  030%=      5-min Rain = 0
KWVS 172133Z 12003KT 12/M05 A301 RMK A01 T01171050  RH  031%=      5-min Rain = 0
KWVS 172134Z 11004KT 12/M05 A301 RMK A01 T01181050  RH  031%=      5-min Rain = 0
KWVS 172135Z 13004KT 12/M05 A301 RMK A01 T01171052  RH  030%=      5-min Rain = 0
KWVS 172136Z 11003KT 12/M05 A301 RMK A01 T01161052  RH  030%=      5-min Rain = 0
KWVS 172137Z 08001KT 12/M05 A301 RMK A01 T01161053  RH  030%=      5-min Rain = 0
KWVS 172138Z 04000KT 12/M05 A301 RMK A01 T01161052  RH  030%=      5-min Rain = 0
KWVS 172139Z 00000KT 12/M05 A301 RMK A01 T01171052  RH  030%=      5-min Rain = 0
KWVS 172140Z 14003KT 12/M05 A301 RMK A01 T01191050  RH  030%=      5-min Rain = 0
KWVS 172141Z 14004KT 12/M05 A301 RMK A01 T01201051  RH  030%=      5-min Rain = 0
KWVS 172142Z 15003KT 12/M05 A3009 RMK A01 T01191049  RH  030%=      5-min Rain = 0
KWVS 172143Z 14003KT 12/M05 A3009 RMK A01 T01191049  RH  030%=      5-min Rain = 0
KWVS 172144Z 14004KT 12/M05 A3009 RMK A01 T01201050  RH  030%=      5-min Rain = 0
KWVS 172145Z 15002KT 12/M06 A3009 RMK A01 T01191055  RH  029%=      5-min Rain = 0
KWVS 172146Z 17002KT 12/M05 A3009 RMK A01 T01171052  RH  030%=      5-min Rain = 0
KWVS 172147Z 09002KT 12/M05 A3009 RMK A01 T01181051  RH  030%=      5-min Rain = 0
KWVS 172148Z 09003KT 12/M05 A3009 RMK A01 T01181050  RH  030%=      5-min Rain = 0
KWVS 172149Z 09004KT 12/M05 A3009 RMK A01 T01171051  RH  030%=      5-min Rain = 0
KWVS 172150Z 06004KT 12/M05 A3009 RMK A01 T01171050  RH  031%=      5-min Rain = 0
KWVS 172151Z 06004KT 12/M05 A3009 RMK A01 T01161048  RH  031%=      5-min Rain = 0
KWVS 172152Z 06002KT 12/M05 A3009 RMK A01 T01151049  RH  031%=      5-min Rain = 0
KWVS 172153Z 07002KT 12/M05 A3009 RMK A01 T01151046  RH  032%=      5-min Rain = 0
KWVS 172154Z 07002KT 12/M05 A3009 RMK A01 T01161046  RH  032%=      5-min Rain = 0
KWVS 172155Z 04003KT 12/M05 A3009 RMK A01 T01171049  RH  031%=      5-min Rain = 0
KWVS 172156Z 04002KT 12/M06 A3009 RMK A01 T01161055  RH  030%=      5-min Rain = 0
KWVS 172157Z 00000KT 11/M05 A3009 RMK A01 T01141054  RH  030%=      5-min Rain = 0
KWVS 172158Z 01001KT 11/M05 A3009 RMK A01 T01141053  RH  031%=      5-min Rain = 0
KWVS 172159Z 02002KT 12/M05 A3009 RMK A01 T01151049  RH  031%=      5-min Rain = 0
KWVS 172200Z 02002KT 12/M05 A3009 RMK A01 T01151051  RH  031%=      5-min Rain = 0
KWVS 172201Z 02002KT 11/M06 A3009 RMK A01 T01141055  RH  030%=      5-min Rain = 0
KWVS 172202Z 01000KT 11/M05 A3009 RMK A01 T01131051  RH  031%=      5-min Rain = 0
KWVS 172203Z 34000KT 11/M05 A3009 RMK A01 T01141051  RH  031%=      5-min Rain = 0
KWVS 172204Z 00000KT 12/M05 A3009 RMK A01 T01161054  RH  030%=      5-min Rain = 0
KWVS 172205Z 12002KT 12/M05 A3009 RMK A01 T01171053  RH  030%=      5-min Rain = 0
KWVS 172206Z 16004G10KT 12/M05 A3009 RMK A01 T01181051  RH  030%=      5-min Rain = 0
KWVS 172207Z 08006KT 12/M05 A3009 RMK A01 T01191051  RH  030%=      5-min Rain = 0
KWVS 172208Z 08004KT 12/M05 A3009 RMK A01 T01171052  RH  030%=      5-min Rain = 0
KWVS 172209Z 10004KT 12/M05 A3009 RMK A01 T01161050  RH  031%=      5-min Rain = 0
KWVS 172210Z 11004KT 12/M05 A3009 RMK A01 T01151053  RH  030%=      5-min Rain = 0
KWVS 172211Z 11003KT 11/M05 A3009 RMK A01 T01141050  RH  031%=      5-min Rain = 0
KWVS 172212Z 09003KT 12/M05 A3009 RMK A01 T01151051  RH  031%=      5-min Rain = 0
KWVS 172213Z 08002KT 12/M05 A3009 RMK A01 T01151053  RH  030%=      5-min Rain = 0
KWVS 172214Z 08001KT 12/M05 A3009 RMK A01 T01151052  RH  031%=      5-min Rain = 0
KWVS 172215Z 13001KT 12/M05 A3008 RMK A01 T01151054  RH  030%=      5-min Rain = 0
KWVS 172216Z 16003KT 12/M05 A3008 RMK A01 T01171049  RH  031%=      5-min Rain = 0
KWVS 172217Z 18004KT 12/M05 A3008 RMK A01 T01191050  RH  030%=      5-min Rain = 0
KWVS 172218Z 19003KT 12/M05 A3008 RMK A01 T01191053  RH  030%=      5-min Rain = 0
KWVS 172219Z 15005KT 12/M05 A3008 RMK A01 T01181049  RH  031%=      5-min Rain = 0
KWVS 172220Z 10004KT 12/M05 A3008 RMK A01 T01181050  RH  030%=      5-min Rain = 0
KWVS 172221Z 10003KT 12/M05 A3008 RMK A01 T01181048  RH  031%=      5-min Rain = 0
KWVS 172222Z 11004KT 12/M05 A3009 RMK A01 T01181047  RH  031%=      5-min Rain = 0
KWVS 172223Z 11004KT 12/M05 A3009 RMK A01 T01171048  RH  031%=      5-min Rain = 0
KWVS 172224Z 12002KT 12/M05 A3009 RMK A01 T01161053  RH  030%=      5-min Rain = 0
KWVS 172225Z 14002KT 12/M05 A3008 RMK A01 T01151051  RH  031%=      5-min Rain = 0
KWVS 172226Z 12001KT 12/M05 A3008 RMK A01 T01161053  RH  030%=      5-min Rain = 0
KWVS 172227Z 11001KT 12/M05 A3008 RMK A01 T01171052  RH  030%=      5-min Rain = 0
KWVS 172228Z 13003KT 12/M05 A3008 RMK A01 T01181052  RH  030%=      5-min Rain = 0
KWVS 172229Z 13003KT 12/M05 A3008 RMK A01 T01171051  RH  030%=      5-min Rain = 0
KWVS 172230Z 14003KT 12/M05 A3008 RMK A01 T01171053  RH  030%=      5-min Rain = 0
KWVS 172231Z 10003KT 12/M05 A3008 RMK A01 T01171051  RH  030%=      5-min Rain = 0
KWVS 172232Z 10002KT 12/M05 A3008 RMK A01 T01181050  RH  031%=      5-min Rain = 0
KWVS 172233Z 09002KT 12/M05 A3008 RMK A01 T01171054  RH  030%=      5-min Rain = 0
KWVS 172234Z 07003KT 12/M05 A3008 RMK A01 T01161048  RH  031%=      5-min Rain = 0
KWVS 172235Z 09004KT 12/M05 A3008 RMK A01 T01161052  RH  031%=      5-min Rain = 0
KWVS 172236Z 10005KT 12/M05 A3008 RMK A01 T01151050  RH  031%=      5-min Rain = 0
KWVS 172237Z 11005KT 12/M05 A3008 RMK A01 T01151051  RH  031%=      5-min Rain = 0
KWVS 172238Z 10005KT 11/M05 A3008 RMK A01 T01141050  RH  031%=      5-min Rain = 0
KWVS 172239Z 11005KT 11/M05 A3008 RMK A01 T01141053  RH  031%=      5-min Rain = 0
KWVS 172240Z 10004KT 11/M06 A3008 RMK A01 T01121056  RH  030%=      5-min Rain = 0
KWVS 172241Z 11002KT 11/M06 A3008 RMK A01 T01101057  RH  030%=      5-min Rain = 0
KWVS 172242Z 13003KT 11/M06 A3008 RMK A01 T01101055  RH  031%=      5-min Rain = 0
KWVS 172243Z 14003KT 11/M05 A3008 RMK A01 T01101053  RH  031%=      5-min Rain = 0
KWVS 172244Z 13003KT 11/M05 A3008 RMK A01 T01121049  RH  032%=      5-min Rain = 0
KWVS 172245Z 14002KT 11/M05 A3008 RMK A01 T01131054  RH  031%=      5-min Rain = 0
KWVS 172246Z 10003KT 11/M05 A3008 RMK A01 T01141052  RH  031%=      5-min Rain = 0
KWVS 172247Z 08003KT 12/M05 A3008 RMK A01 T01151052  RH  031%=      5-min Rain = 0
KWVS 172248Z 08002KT 12/M05 A3008 RMK A01 T01151053  RH  031%=      5-min Rain = 0
KWVS 172249Z 06001KT 11/M06 A3008 RMK A01 T01141055  RH  030%=      5-min Rain = 0
KWVS 172250Z 06001KT 11/M06 A3008 RMK A01 T01131056  RH  030%=      5-min Rain = 0
KWVS 172251Z 10002KT 11/M06 A3008 RMK A01 T01131056  RH  030%=      5-min Rain = 0
KWVS 172252Z 08001KT 11/M05 A3008 RMK A01 T01131050  RH  032%=      5-min Rain = 0
KWVS 172253Z 05001KT 11/M05 A3008 RMK A01 T01141051  RH  031%=      5-min Rain = 0
KWVS 172254Z 05000KT 11/M05 A3008 RMK A01 T01141052  RH  031%=      5-min Rain = 0
KWVS 172255Z 10001KT 11/M05 A3008 RMK A01 T01141052  RH  031%=      5-min Rain = 0
KWVS 172256Z 14004KT 12/M05 A3008 RMK A01 T01151050  RH  031%=      5-min Rain = 0
KWVS 172257Z 13004KT 12/M05 A3008 RMK A01 T01161048  RH  031%=      5-min Rain = 0
KWVS 172258Z 12004KT 12/M05 A3008 RMK A01 T01161049  RH  031%=      5-min Rain = 0
KWVS 172259Z 12005KT 12/M05 A3008 RMK A01 T01161048  RH  031%=      5-min Rain = 0
KWVS 172300Z 11004KT 12/M05 A3008 RMK A01 T01151048  RH  031%=      5-min Rain = 0
KWVS 172301Z 12004KT 11/M05 A3008 RMK A01 T01141051  RH  031%=      5-min Rain = 0
KWVS 172302Z 10003KT 11/M05 A3008 RMK A01 T01141049  RH  032%=      5-min Rain = 0
KWVS 172303Z 10003KT 11/M05 A3008 RMK A01 T01131052  RH  031%=      5-min Rain = 0
KWVS 172304Z 11004KT 11/M05 A3008 RMK A01 T01121051  RH  031%=      5-min Rain = 0
KWVS 172305Z 10004KT 11/M05 A3008 RMK A01 T01111051  RH  032%=      5-min Rain = 0
KWVS 172306Z 10003KT 11/M05 A3008 RMK A01 T01111051  RH  032%=      5-min Rain = 0
KWVS 172307Z 11003KT 11/M05 A3008 RMK A01 T01101049  RH  032%=      5-min Rain = 0
KWVS 172308Z 11004KT 11/M05 A3008 RMK A01 T01101050  RH  032%=      5-min Rain = 0
KWVS 172309Z 11004KT 11/M05 A3008 RMK A01 T01111050  RH  032%=      5-min Rain = 0
KWVS 172310Z 11004KT 11/M05 A3008 RMK A01 T01111049  RH  032%=      5-min Rain = 0
KWVS 172311Z 11004KT 11/M05 A3008 RMK A01 T01111051  RH  032%=      5-min Rain = 0
KWVS 172312Z 12004KT 11/M05 A3008 RMK A01 T01101049  RH  032%=      5-min Rain = 0
KWVS 172313Z 14003KT 11/M05 A3008 RMK A01 T01111048  RH  032%=      5-min Rain = 0
KWVS 172314Z 15003KT 11/M05 A3008 RMK A01 T01111046  RH  033%=      5-min Rain = 0
KWVS 172315Z 15003KT 11/M05 A3008 RMK A01 T01121048  RH  032%=      5-min Rain = 0
KWVS 172316Z 15004KT 11/M05 A3008 RMK A01 T01131048  RH  032%=      5-min Rain = 0
KWVS 172317Z 15004KT 11/M05 A3008 RMK A01 T01131050  RH  031%=      5-min Rain = 0
KWVS 172318Z 14003KT 11/M05 A3008 RMK A01 T01121051  RH  031%=      5-min Rain = 0
KWVS 172319Z 15003KT 11/M05 A3008 RMK A01 T01121048  RH  032%=      5-min Rain = 0
KWVS 172320Z 16002KT 11/M05 A3008 RMK A01 T01111054  RH  031%=      5-min Rain = 0
KWVS 172321Z 16000KT 11/M06 A3008 RMK A01 T01111056  RH  031%=      5-min Rain = 0
KWVS 172322Z 13001KT 11/M06 A3008 RMK A01 T01111056  RH  031%=      5-min Rain = 0
KWVS 172323Z 09002KT 11/M06 A3008 RMK A01 T01111057  RH  030%=      5-min Rain = 0
KWVS 172324Z 15002KT 11/M05 A3008 RMK A01 T01111053  RH  031%=      5-min Rain = 0
KWVS 172325Z 15003KT 11/M05 A3008 RMK A01 T01111051  RH  032%=      5-min Rain = 0
KWVS 172326Z 13003KT 11/M05 A3008 RMK A01 T01111051  RH  032%=      5-min Rain = 0
KWVS 172327Z 13004KT 11/M05 A3008 RMK A01 T01111048  RH  032%=      5-min Rain = 0
KWVS 172328Z 13003KT 11/M05 A3008 RMK A01 T01101050  RH  032%=      5-min Rain = 0
KWVS 172329Z 16003KT 11/M05 A3008 RMK A01 T01091048  RH  033%=      5-min Rain = 0
KWVS 172330Z 14002KT 11/M05 A3008 RMK A01 T01081048  RH  033%=      5-min Rain = 0
KWVS 172331Z 14003KT 11/M04 A3008 RMK A01 T01081043  RH  034%=      5-min Rain = 0
KWVS 172332Z 15004KT 11/M05 A3008 RMK A01 T01071047  RH  034%=      5-min Rain = 0
KWVS 172333Z 14004KT 11/M05 A3008 RMK A01 T01071050  RH  033%=      5-min Rain = 0
KWVS 172334Z 15003KT 11/M05 A3008 RMK A01 T01051049  RH  034%=      5-min Rain = 0
KWVS 172335Z 17004KT 10/M05 A3008 RMK A01 T01041046  RH  034%=      5-min Rain = 0
KWVS 172336Z 16004KT 10/M05 A3008 RMK A01 T01031047  RH  034%=      5-min Rain = 0
KWVS 172337Z 16003KT 10/M05 A3008 RMK A01 T01031054  RH  033%=      5-min Rain = 0
KWVS 172338Z 16004KT 10/M05 A3008 RMK A01 T01031050  RH  034%=      5-min Rain = 0
KWVS 172339Z 16005KT 10/M05 A3008 RMK A01 T01031047  RH  035%=      5-min Rain = 0
KWVS 172340Z 16005KT 10/M05 A3008 RMK A01 T01021046  RH  035%=      5-min Rain = 0
KWVS 172341Z 16005KT 10/M05 A3008 RMK A01 T01011045  RH  036%=      5-min Rain = 0
KWVS 172342Z 16004KT 10/M05 A3008 RMK A01 T01001045  RH  036%=      5-min Rain = 0
KWVS 172343Z 16004KT 10/M04 A3008 RMK A01 T00991043  RH  037%=      5-min Rain = 0
KWVS 172344Z 15004KT 10/M04 A3008 RMK A01 T00981043  RH  037%=      5-min Rain = 0
KWVS 172345Z 15004KT 10/M04 A3008 RMK A01 T00971043  RH  037%=      5-min Rain = 0
KWVS 172346Z 15005KT 10/M04 A3008 RMK A01 T00961042  RH  037%=      5-min Rain = 0
KWVS 172347Z 15004KT 10/M04 A3008 RMK A01 T00961042  RH  038%=      5-min Rain = 0
KWVS 172348Z 16004KT 10/M04 A3008 RMK A01 T00951042  RH  038%=      5-min Rain = 0
KWVS 172349Z 16005KT 09/M04 A3008 RMK A01 T00941042  RH  038%=      5-min Rain = 0
KWVS 172350Z 17005KT 09/M04 A3007 RMK A01 T00941043  RH  038%=      5-min Rain = 0
KWVS 172351Z 17005KT 09/M04 A3007 RMK A01 T00931043  RH  038%=      5-min Rain = 0
KWVS 172352Z 17005KT 09/M05 A3007 RMK A01 T00931045  RH  038%=      5-min Rain = 0
KWVS 172353Z 18005KT 09/M05 A3007 RMK A01 T00921045  RH  038%=      5-min Rain = 0
KWVS 172354Z 18005KT 09/M05 A3007 RMK A01 T00911045  RH  038%=      5-min Rain = 0
KWVS 172355Z 18005KT 09/M05 A3007 RMK A01 T00901045  RH  038%=      5-min Rain = 0
KWVS 172356Z 18005KT 09/M05 A3007 RMK A01 T00901045  RH  038%=      5-min Rain = 0
KWVS 172357Z 18005KT 09/M05 A3007 RMK A01 T00891046  RH  038%=      5-min Rain = 0
KWVS 172358Z 18005KT 09/M05 A3008 RMK A01 T00891046  RH  038%=      5-min Rain = 0
KWVS 172359Z 18005KT 09/M05 A3007 RMK A01 T00881046  RH  038%=      5-min Rain = 0
KWVS 180000Z 17005KT 09/M05 A3007 RMK A01 T00871047  RH  038%=      5-min Rain = 0
KWVS 180001Z 18005KT 09/M05 A3007 RMK A01 T00871047  RH  038%=      5-min Rain = 0
KWVS 180002Z 17005KT 09/M05 A3007 RMK A01 T00871047  RH  038%=      5-min Rain = 0
KWVS 180003Z 17005KT 09/M05 A3007 RMK A01 T00861048  RH  038%=      5-min Rain = 0
KWVS 180004Z 18005KT 09/M05 A3007 RMK A01 T00861048  RH  038%=      5-min Rain = 0
KWVS 180005Z 17005KT 09/M05 A3008 RMK A01 T00861048  RH  038%=      5-min Rain = 0
KWVS 180006Z 17004KT 09/M05 A3008 RMK A01 T00851048  RH  039%=      5-min Rain = 0
KWVS 180007Z 18004KT 09/M05 A3008 RMK A01 T00851049  RH  038%=      5-min Rain = 0
KWVS 180008Z 18004KT 09/M05 A3008 RMK A01 T00861050  RH  038%=      5-min Rain = 0
KWVS 180009Z 18005KT 09/M05 A3008 RMK A01 T00861050  RH  038%=      5-min Rain = 0
KWVS 180010Z 18005KT 09/M05 A3008 RMK A01 T00861050  RH  038%=      5-min Rain = 0
KWVS 180011Z 18005KT 09/M05 A3008 RMK A01 T00851049  RH  038%=      5-min Rain = 0
KWVS 180012Z 17005KT 09/M05 A3008 RMK A01 T00851050  RH  038%=      5-min Rain = 0
KWVS 180013Z 18005KT 09/M05 A3008 RMK A01 T00851050  RH  038%=      5-min Rain = 0
KWVS 180014Z 18004KT 09/M05 A3008 RMK A01 T00851051  RH  038%=      5-min Rain = 0
KWVS 180015Z 17004KT 09/M05 A3008 RMK A01 T00851051  RH  038%=      5-min Rain = 0
KWVS 180016Z 17004KT 09/M05 A3008 RMK A01 T00851050  RH  038%=      5-min Rain = 0
KWVS 180017Z 17005KT 09/M05 A3008 RMK A01 T00851050  RH  038%=      5-min Rain = 0
KWVS 180018Z 17005KT 08/M05 A3008 RMK A01 T00841050  RH  038%=      5-min Rain = 0
KWVS 180019Z 18005KT 08/M05 A3008 RMK A01 T00841050  RH  038%=      5-min Rain = 0
KWVS 180020Z 17005KT 08/M05 A3008 RMK A01 T00831049  RH  039%=      5-min Rain = 0
KWVS 180021Z 18005KT 08/M05 A3008 RMK A01 T00821049  RH  039%=      5-min Rain = 0
KWVS 180022Z 18005KT 08/M05 A3008 RMK A01 T00811048  RH  039%=      5-min Rain = 0
KWVS 180023Z 18005KT 08/M05 A3008 RMK A01 T00801049  RH  040%=      5-min Rain = 0
KWVS 180024Z 18005KT 08/M05 A3008 RMK A01 T00801048  RH  040%=      5-min Rain = 0
KWVS 180025Z 19005KT 08/M05 A3008 RMK A01 T00791048  RH  040%=      5-min Rain = 0
KWVS 180026Z 19005KT 08/M05 A3008 RMK A01 T00781047  RH  041%=      5-min Rain = 0
KWVS 180027Z 19005KT 08/M05 A3008 RMK A01 T00771047  RH  041%=      5-min Rain = 0
KWVS 180028Z 19005KT 08/M05 A3008 RMK A01 T00751046  RH  042%=      5-min Rain = 0
KWVS 180029Z 19005KT 07/M05 A3008 RMK A01 T00731045  RH  043%=      5-min Rain = 0
KWVS 180030Z 20005KT 07/M05 A3008 RMK A01 T00711045  RH  043%=      5-min Rain = 0
KWVS 180031Z 20005KT 07/M04 A3008 RMK A01 T00701044  RH  044%=      5-min Rain = 0
KWVS 180032Z 20006KT 07/M05 A3008 RMK A01 T00701045  RH  044%=      5-min Rain = 0
KWVS 180033Z 20005KT 07/M05 A3008 RMK A01 T00701045  RH  044%=      5-min Rain = 0
KWVS 180034Z 20006KT 07/M04 A3008 RMK A01 T00701044  RH  044%=      5-min Rain = 0
KWVS 180035Z 20006KT 07/M04 A3008 RMK A01 T00691044  RH  044%=      5-min Rain = 0
KWVS 180036Z 20006KT 07/M04 A3008 RMK A01 T00691043  RH  045%=      5-min Rain = 0
KWVS 180037Z 20006KT 07/M04 A3008 RMK A01 T00691043  RH  045%=      5-min Rain = 0
KWVS 180038Z 20006KT 07/M04 A3008 RMK A01 T00691043  RH  045%=      5-min Rain = 0
KWVS 180039Z 20006KT 07/M04 A3008 RMK A01 T00691044  RH  045%=      5-min Rain = 0
KWVS 180040Z 20006KT 07/M04 A3008 RMK A01 T00691043  RH  045%=      5-min Rain = 0
KWVS 180041Z 20006KT 07/M04 A3008 RMK A01 T00681043  RH  045%=      5-min Rain = 0
KWVS 180042Z 20006KT 07/M04 A3008 RMK A01 T00681043  RH  045%=      5-min Rain = 0
KWVS 180043Z 20006KT 07/M04 A3008 RMK A01 T00681044  RH  045%=      5-min Rain = 0
KWVS 180044Z 20006KT 07/M04 A3008 RMK A01 T00681044  RH  044%=      5-min Rain = 0
KWVS 180045Z 20006KT 07/M05 A3008 RMK A01 T00691045  RH  044%=      5-min Rain = 0
KWVS 180046Z 20006KT 07/M05 A3008 RMK A01 T00691045  RH  044%=      5-min Rain = 0
KWVS 180047Z 20005KT 07/M05 A3008 RMK A01 T00691045  RH  044%=      5-min Rain = 0
KWVS 180048Z 20005KT 07/M04 A3008 RMK A01 T00701044  RH  044%=      5-min Rain = 0
KWVS 180049Z 20006KT 07/M04 A3008 RMK A01 T00701044  RH  044%=      5-min Rain = 0
KWVS 180050Z 20006KT 07/M04 A3008 RMK A01 T00701044  RH  044%=      5-min Rain = 0
KWVS 180051Z 21006KT 07/M04 A3008 RMK A01 T00691044  RH  044%=      5-min Rain = 0
KWVS 180052Z 21006KT 07/M04 A3008 RMK A01 T00691044  RH  044%=      5-min Rain = 0
KWVS 180053Z 21006KT 07/M05 A3008 RMK A01 T00691045  RH  044%=      5-min Rain = 0
KWVS 180054Z 21005KT 07/M05 A3008 RMK A01 T00701045  RH  044%=      5-min Rain = 0
KWVS 180055Z 20005KT 07/M05 A3008 RMK A01 T00701045  RH  044%=      5-min Rain = 0
KWVS 180056Z 21004KT 07/M04 A3008 RMK A01 T00701044  RH  044%=      5-min Rain = 0
KWVS 180057Z 21004KT 07/M04 A3008 RMK A01 T00701044  RH  044%=      5-min Rain = 0
KWVS 180058Z 21005KT 07/M04 A3008 RMK A01 T00691044  RH  044%=      5-min Rain = 0
KWVS 180059Z 22005KT 07/M04 A3008 RMK A01 T00691044  RH  044%=      5-min Rain = 0
KWVS 180100Z 22005KT 07/M04 A3008 RMK A01 T00681044  RH  045%=      5-min Rain = 0
KWVS 180101Z 23005KT 07/M04 A3008 RMK A01 T00681044  RH  045%=      5-min Rain = 0
KWVS 180102Z 23004KT 07/M04 A3008 RMK A01 T00661042  RH  046%=      5-min Rain = 0
KWVS 180103Z 23004KT 06/M04 A3008 RMK A01 T00641041  RH  047%=      5-min Rain = 0
KWVS 180104Z 23005KT 06/M04 A3008 RMK A01 T00621041  RH  047%=      5-min Rain = 0
KWVS 180105Z 23005KT 06/M04 A3009 RMK A01 T00621041  RH  048%=      5-min Rain = 0
KWVS 180106Z 23004KT 06/M04 A3009 RMK A01 T00621041  RH  048%=      5-min Rain = 0
KWVS 180107Z 22005KT 06/M04 A3009 RMK A01 T00621042  RH  047%=      5-min Rain = 0
KWVS 180108Z 22005KT 06/M04 A3009 RMK A01 T00621042  RH  047%=      5-min Rain = 0
KWVS 180109Z 22005KT 06/M04 A3009 RMK A01 T00631042  RH  047%=      5-min Rain = 0
KWVS 180110Z 22005KT 06/M04 A3009 RMK A01 T00631043  RH  047%=      5-min Rain = 0
KWVS 180111Z 22004KT 06/M04 A3009 RMK A01 T00641043  RH  047%=      5-min Rain = 0
KWVS 180112Z 22005KT 06/M04 A3009 RMK A01 T00641043  RH  046%=      5-min Rain = 0
KWVS 180113Z 22004KT 07/M04 A3009 RMK A01 T00651043  RH  046%=      5-min Rain = 0
KWVS 180114Z 22004KT 07/M04 A3009 RMK A01 T00651043  RH  046%=      5-min Rain = 0
KWVS 180115Z 22004KT 07/M04 A3009 RMK A01 T00651042  RH  046%=      5-min Rain = 0
KWVS 180116Z 22004KT 07/M04 A3008 RMK A01 T00651043  RH  046%=      5-min Rain = 0
KWVS 180117Z 22004KT 07/M04 A3008 RMK A01 T00651044  RH  046%=      5-min Rain = 0
KWVS 180118Z 23004KT 07/M04 A3008 RMK A01 T00661043  RH  045%=      5-min Rain = 0
KWVS 180119Z 23005KT 07/M04 A3008 RMK A01 T00661043  RH  045%=      5-min Rain = 0
KWVS 180120Z 23005KT 07/M04 A3008 RMK A01 T00661043  RH  045%=      5-min Rain = 0
KWVS 180121Z 23004KT 07/M04 A3008 RMK A01 T00661043  RH  046%=      5-min Rain = 0
KWVS 180122Z 23004KT 07/M04 A3008 RMK A01 T00661043  RH  046%=      5-min Rain = 0
KWVS 180123Z 23004KT 07/M04 A3008 RMK A01 T00661043  RH  046%=      5-min Rain = 0
KWVS 180124Z 24004KT 07/M04 A3008 RMK A01 T00661044  RH  046%=      5-min Rain = 0
KWVS 180125Z 23004KT 07/M04 A3009 RMK A01 T00661044  RH  045%=      5-min Rain = 0
KWVS 180126Z 23004KT 07/M04 A3009 RMK A01 T00661044  RH  045%=      5-min Rain = 0
KWVS 180127Z 23004KT 07/M04 A3009 RMK A01 T00661044  RH  045%=      5-min Rain = 0
KWVS 180128Z 23004KT 07/M04 A3009 RMK A01 T00661044  RH  045%=      5-min Rain = 0
KWVS 180129Z 23004KT 07/M04 A3009 RMK A01 T00661044  RH  045%=      5-min Rain = 0
KWVS 180130Z 23005KT 07/M04 A3009 RMK A01 T00661044  RH  045%=      5-min Rain = 0
KWVS 180131Z 23004KT 07/M04 A3009 RMK A01 T00651044  RH  046%=      5-min Rain = 0
KWVS 180132Z 23004KT 07/M04 A3008 RMK A01 T00651044  RH  046%=      5-min Rain = 0
KWVS 180133Z 23004KT 07/M04 A3008 RMK A01 T00651044  RH  046%=      5-min Rain = 0
KWVS 180134Z 24004KT 06/M04 A3008 RMK A01 T00641044  RH  046%=      5-min Rain = 0
KWVS 180135Z 24004KT 06/M04 A3008 RMK A01 T00641044  RH  046%=      5-min Rain = 0
KWVS 180136Z 24004KT 06/M04 A3008 RMK A01 T00641044  RH  046%=      5-min Rain = 0
KWVS 180137Z 23004KT 06/M04 A3008 RMK A01 T00641044  RH  046%=      5-min Rain = 0
KWVS 180138Z 23004KT 06/M04 A3008 RMK A01 T00641044  RH  046%=      5-min Rain = 0
KWVS 180139Z 22004KT 06/M05 A3008 RMK A01 T00641045  RH  046%=      5-min Rain = 0
KWVS 180140Z 22004KT 06/M05 A3008 RMK A01 T00641045  RH  046%=      5-min Rain = 0
KWVS 180141Z 22004KT 07/M05 A3008 RMK A01 T00651045  RH  045%=      5-min Rain = 0
KWVS 180142Z 21004KT 07/M05 A3008 RMK A01 T00651045  RH  045%=      5-min Rain = 0
KWVS 180143Z 21005KT 07/M05 A3008 RMK A01 T00651045  RH  046%=      5-min Rain = 0
KWVS 180144Z 22005KT 06/M05 A3008 RMK A01 T00641045  RH  046%=      5-min Rain = 0
KWVS 180145Z 21005KT 06/M05 A3008 RMK A01 T00641045  RH  046%=      5-min Rain = 0
KWVS 180146Z 22005KT 06/M04 A3007 RMK A01 T00631044  RH  046%=      5-min Rain = 0
KWVS 180147Z 22004KT 06/M04 A3007 RMK A01 T00621044  RH  046%=      5-min Rain = 0
KWVS 180148Z 22004KT 06/M05 A3007 RMK A01 T00621045  RH  046%=      5-min Rain = 0
KWVS 180149Z 22004KT 06/M05 A3007 RMK A01 T00611045  RH  046%=      5-min Rain = 0
KWVS 180150Z 22004KT 06/M04 A3007 RMK A01 T00611044  RH  047%=      5-min Rain = 0
KWVS 180151Z 21003KT 06/M04 A3007 RMK A01 T00611044  RH  047%=      5-min Rain = 0
KWVS 180152Z 21003KT 06/M04 A3007 RMK A01 T00601044  RH  047%=      5-min Rain = 0
KWVS 180153Z 22004KT 06/M05 A3007 RMK A01 T00591045  RH  047%=      5-min Rain = 0
KWVS 180154Z 21003KT 06/M05 A3007 RMK A01 T00591045  RH  047%=      5-min Rain = 0
KWVS 180155Z 22004KT 06/M05 A3007 RMK A01 T00591045  RH  047%=      5-min Rain = 0
KWVS 180156Z 21004KT 06/M05 A3007 RMK A01 T00591045  RH  047%=      5-min Rain = 0
KWVS 180157Z 21004KT 06/M05 A3007 RMK A01 T00591045  RH  047%=      5-min Rain = 0
KWVS 180158Z 21004KT 06/M05 A3007 RMK A01 T00591045  RH  047%=      5-min Rain = 0
KWVS 180159Z 21003KT 06/M05 A3007 RMK A01 T00591045  RH  047%=      5-min Rain = 0
KWVS 180200Z 21003KT 06/M05 A3007 RMK A01 T00591045  RH  047%=      5-min Rain = 0
KWVS 180201Z 21003KT 06/M05 A3007 RMK A01 T00581045  RH  048%=      5-min Rain = 0
KWVS 180202Z 21003KT 06/M05 A3007 RMK A01 T00581045  RH  048%=      5-min Rain = 0
KWVS 180203Z 21003KT 06/M05 A3007 RMK A01 T00571045  RH  048%=      5-min Rain = 0
KWVS 180204Z 20004KT 06/M05 A3007 RMK A01 T00571045  RH  048%=      5-min Rain = 0
KWVS 180205Z 20004KT 06/M05 A3007 RMK A01 T00571045  RH  048%=      5-min Rain = 0
KWVS 180206Z 20004KT 06/M05 A3007 RMK A01 T00571045  RH  048%=      5-min Rain = 0
KWVS 180207Z 20004KT 06/M05 A3007 RMK A01 T00571045  RH  048%=      5-min Rain = 0
KWVS 180208Z 20004KT 06/M05 A3007 RMK A01 T00571045  RH  048%=      5-min Rain = 0
KWVS 180209Z 19004KT 06/M05 A3007 RMK A01 T00581045  RH  047%=      5-min Rain = 0
KWVS 180210Z 19004KT 06/M05 A3006 RMK A01 T00581045  RH  047%=      5-min Rain = 0
KWVS 180211Z 19004KT 06/M05 A3006 RMK A01 T00581045  RH  047%=      5-min Rain = 0
KWVS 180212Z 19004KT 06/M05 A3006 RMK A01 T00581046  RH  047%=      5-min Rain = 0
KWVS 180213Z 19004KT 06/M05 A3006 RMK A01 T00591046  RH  047%=      5-min Rain = 0
KWVS 180214Z 19004KT 06/M05 A3006 RMK A01 T00611046  RH  046%=      5-min Rain = 0
KWVS 180215Z 19004KT 06/M05 A3006 RMK A01 T00611046  RH  046%=      5-min Rain = 0
KWVS 180216Z 18004KT 06/M05 A3006 RMK A01 T00621047  RH  046%=      5-min Rain = 0
KWVS 180217Z 19004KT 06/M05 A3006 RMK A01 T00621047  RH  046%=      5-min Rain = 0
KWVS 180218Z 19004KT 06/M05 A3006 RMK A01 T00621046  RH  046%=      5-min Rain = 0
KWVS 180219Z 19004KT 06/M05 A3006 RMK A01 T00621046  RH  046%=      5-min Rain = 0
KWVS 180220Z 19003KT 06/M05 A3006 RMK A01 T00621047  RH  046%=      5-min Rain = 0
KWVS 180221Z 18003KT 06/M05 A3006 RMK A01 T00621046  RH  046%=      5-min Rain = 0
KWVS 180222Z 18004KT 06/M05 A3006 RMK A01 T00621046  RH  046%=      5-min Rain = 0
KWVS 180223Z 18004KT 06/M05 A3006 RMK A01 T00611047  RH  046%=      5-min Rain = 0
KWVS 180224Z 18004KT 06/M05 A3006 RMK A01 T00611047  RH  046%=      5-min Rain = 0
KWVS 180225Z 18004KT 06/M05 A3006 RMK A01 T00611047  RH  046%=      5-min Rain = 0
KWVS 180226Z 18004KT 06/M05 A3006 RMK A01 T00611047  RH  046%=      5-min Rain = 0
KWVS 180227Z 18004KT 06/M05 A3006 RMK A01 T00621047  RH  045%=      5-min Rain = 0
KWVS 180228Z 18004KT 06/M05 A3006 RMK A01 T00621047  RH  045%=      5-min Rain = 0
KWVS 180229Z 18004KT 06/M05 A3006 RMK A01 T00621047  RH  045%=      5-min Rain = 0
KWVS 180230Z 18004KT 06/M05 A3006 RMK A01 T00621047  RH  045%=      5-min Rain = 0
KWVS 180231Z 18004KT 06/M05 A3006 RMK A01 T00621047  RH  045%=      5-min Rain = 0
KWVS 180232Z 18004KT 06/M05 A3006 RMK A01 T00621047  RH  045%=      5-min Rain = 0
KWVS 180233Z 18005KT 06/M05 A3006 RMK A01 T00621047  RH  045%=      5-min Rain = 0
KWVS 180234Z 17005KT 06/M05 A3006 RMK A01 T00611048  RH  046%=      5-min Rain = 0
KWVS 180235Z 17004KT 06/M05 A3006 RMK A01 T00611047  RH  046%=      5-min Rain = 0
KWVS 180236Z 17004KT 06/M05 A3006 RMK A01 T00611047  RH  046%=      5-min Rain = 0
KWVS 180237Z 17004KT 06/M05 A3006 RMK A01 T00611047  RH  046%=      5-min Rain = 0
KWVS 180238Z 17004KT 06/M05 A3006 RMK A01 T00611047  RH  046%=      5-min Rain = 0
KWVS 180239Z 17004KT 06/M05 A3006 RMK A01 T00611048  RH  046%=      5-min Rain = 0
KWVS 180240Z 17004KT 06/M05 A3006 RMK A01 T00611047  RH  046%=      5-min Rain = 0
KWVS 180241Z 17004KT 06/M05 A3006 RMK A01 T00611047  RH  046%=      5-min Rain = 0
KWVS 180242Z 18004KT 06/M05 A3006 RMK A01 T00601047  RH  046%=      5-min Rain = 0
KWVS 180243Z 18005KT 06/M05 A3006 RMK A01 T00601047  RH  046%=      5-min Rain = 0
KWVS 180244Z 18004KT 06/M05 A3006 RMK A01 T00591047  RH  046%=      5-min Rain = 0
KWVS 180245Z 18004KT 06/M05 A3006 RMK A01 T00591047  RH  046%=      5-min Rain = 0
KWVS 180246Z 18004KT 06/M05 A3006 RMK A01 T00581047  RH  047%=      5-min Rain = 0
KWVS 180247Z 18004KT 06/M05 A3006 RMK A01 T00581047  RH  047%=      5-min Rain = 0
KWVS 180248Z 18004KT 06/M05 A3006 RMK A01 T00581047  RH  047%=      5-min Rain = 0
KWVS 180249Z 18004KT 06/M05 A3006 RMK A01 T00571047  RH  047%=      5-min Rain = 0
KWVS 180250Z 18004KT 06/M05 A3006 RMK A01 T00571047  RH  047%=      5-min Rain = 0
KWVS 180251Z 18004KT 06/M05 A3006 RMK A01 T00571047  RH  047%=      5-min Rain = 0
KWVS 180252Z 18004KT 06/M05 A3006 RMK A01 T00561047  RH  047%=      5-min Rain = 0
KWVS 180253Z 18003KT 06/M05 A3006 RMK A01 T00561047  RH  048%=      5-min Rain = 0
KWVS 180254Z 18004KT 06/M05 A3006 RMK A01 T00551047  RH  048%=      5-min Rain = 0
KWVS 180255Z 18004KT 06/M05 A3006 RMK A01 T00551047  RH  048%=      5-min Rain = 0
KWVS 180256Z 18004KT 06/M05 A3006 RMK A01 T00551047  RH  048%=      5-min Rain = 0
KWVS 180257Z 18004KT 05/M05 A3006 RMK A01 T00541047  RH  048%=      5-min Rain = 0
KWVS 180258Z 18004KT 05/M05 A3006 RMK A01 T00541047  RH  048%=      5-min Rain = 0
KWVS 180259Z 19004KT 05/M05 A3006 RMK A01 T00541047  RH  048%=      5-min Rain = 0
KWVS 180300Z 19004KT 05/M05 A3006 RMK A01 T00531047  RH  048%=      5-min Rain = 0
KWVS 180301Z 19004KT 05/M05 A3006 RMK A01 T00531047  RH  048%=      5-min Rain = 0
KWVS 180302Z 18004KT 05/M05 A3006 RMK A01 T00531047  RH  049%=      5-min Rain = 0
KWVS 180303Z 18004KT 05/M05 A3006 RMK A01 T00531047  RH  049%=      5-min Rain = 0
KWVS 180304Z 18004KT 05/M05 A3006 RMK A01 T00531047  RH  049%=      5-min Rain = 0
KWVS 180305Z 18004KT 05/M05 A3006 RMK A01 T00531047  RH  049%=      5-min Rain = 0
KWVS 180306Z 18004KT 05/M05 A3006 RMK A01 T00531047  RH  049%=      5-min Rain = 0
KWVS 180307Z 18004KT 05/M05 A3006 RMK A01 T00521046  RH  049%=      5-min Rain = 0
KWVS 180308Z 18004KT 05/M05 A3006 RMK A01 T00521046  RH  049%=      5-min Rain = 0
KWVS 180309Z 18005KT 05/M05 A3006 RMK A01 T00511046  RH  049%=      5-min Rain = 0
KWVS 180310Z 19005KT 05/M05 A3006 RMK A01 T00511046  RH  049%=      5-min Rain = 0
KWVS 180311Z 19005KT 05/M05 A3006 RMK A01 T00501046  RH  050%=      5-min Rain = 0
KWVS 180312Z 19005KT 05/M05 A3006 RMK A01 T00491046  RH  050%=      5-min Rain = 0
KWVS 180313Z 19005KT 05/M05 A3006 RMK A01 T00491046  RH  050%=      5-min Rain = 0
KWVS 180314Z 19005KT 05/M05 A3006 RMK A01 T00481046  RH  051%=      5-min Rain = 0
KWVS 180315Z 19005KT 05/M05 A3006 RMK A01 T00481046  RH  051%=      5-min Rain = 0
KWVS 180316Z 19005KT 05/M05 A3006 RMK A01 T00471046  RH  051%=      5-min Rain = 0
KWVS 180317Z 18005KT 05/M05 A3006 RMK A01 T00461046  RH  051%=      5-min Rain = 0
KWVS 180318Z 19005KT 05/M05 A3006 RMK A01 T00461045  RH  052%=      5-min Rain = 0
KWVS 180319Z 19005KT 05/M05 A3006 RMK A01 T00451045  RH  052%=      5-min Rain = 0
KWVS 180320Z 19006KT 05/M05 A3006 RMK A01 T00451045  RH  052%=      5-min Rain = 0
KWVS 180321Z 19005KT 05/M05 A3006 RMK A01 T00451045  RH  052%=      5-min Rain = 0
KWVS 180322Z 19005KT 05/M04 A3006 RMK A01 T00451044  RH  052%=      5-min Rain = 0
KWVS 180323Z 20005KT 04/M04 A3006 RMK A01 T00441044  RH  053%=      5-min Rain = 0
KWVS 180324Z 20005KT 04/M04 A3006 RMK A01 T00441044  RH  053%=      5-min Rain = 0
KWVS 180325Z 20005KT 04/M04 A3006 RMK A01 T00431044  RH  053%=      5-min Rain = 0
KWVS 180326Z 20004KT 04/M04 A3006 RMK A01 T00431044  RH  053%=      5-min Rain = 0
KWVS 180327Z 20004KT 04/M04 A3006 RMK A01 T00431044  RH  053%=      5-min Rain = 0
KWVS 180328Z 20004KT 04/M04 A3005 RMK A01 T00421044  RH  053%=      5-min Rain = 0
KWVS 180329Z 19005KT 04/M05 A3005 RMK A01 T00421045  RH  053%=      5-min Rain = 0
KWVS 180330Z 19003KT 04/M05 A3005 RMK A01 T00431045  RH  053%=      5-min Rain = 0
KWVS 180331Z 19004KT 04/M05 A3005 RMK A01 T00441045  RH  053%=      5-min Rain = 0
KWVS 180332Z 19004KT 04/M05 A3005 RMK A01 T00441045  RH  052%=      5-min Rain = 0
KWVS 180333Z 19004KT 05/M05 A3005 RMK A01 T00451045  RH  052%=      5-min Rain = 0
KWVS 180334Z 19005KT 05/M05 A3005 RMK A01 T00451045  RH  052%=      5-min Rain = 0
KWVS 180335Z 19005KT 05/M05 A3005 RMK A01 T00461045  RH  052%=      5-min Rain = 0
KWVS 180336Z 19005KT 05/M05 A3005 RMK A01 T00461045  RH  052%=      5-min Rain = 0
KWVS 180337Z 19005KT 05/M05 A3005 RMK A01 T00461045  RH  052%=      5-min Rain = 0
KWVS 180338Z 19006KT 05/M04 A3005 RMK A01 T00461044  RH  052%=      5-min Rain = 0
KWVS 180339Z 19006KT 05/M04 A3005 RMK A01 T00451043  RH  053%=      5-min Rain = 0
KWVS 180340Z 19007KT 05/M04 A3005 RMK A01 T00451043  RH  053%=      5-min Rain = 0
KWVS 180341Z 18006KT 05/M04 A3005 RMK A01 T00461042  RH  053%=      5-min Rain = 0
KWVS 180342Z 18006KT 05/M04 A3005 RMK A01 T00451041  RH  054%=      5-min Rain = 0
KWVS 180343Z 19006KT 04/M04 A3005 RMK A01 T00441041  RH  054%=      5-min Rain = 0
KWVS 180344Z 19005KT 04/M04 A3005 RMK A01 T00431040  RH  055%=      5-min Rain = 0
KWVS 180345Z 19005KT 04/M04 A3005 RMK A01 T00431040  RH  055%=      5-min Rain = 0
KWVS 180346Z 19006KT 04/M04 A3005 RMK A01 T00431040  RH  055%=      5-min Rain = 0
KWVS 180347Z 19006KT 04/M04 A3004 RMK A01 T00421041  RH  054%=      5-min Rain = 0
KWVS 180348Z 19006KT 04/M04 A3004 RMK A01 T00431042  RH  054%=      5-min Rain = 0
KWVS 180349Z 18006KT 04/M04 A3004 RMK A01 T00431042  RH  054%=      5-min Rain = 0
KWVS 180350Z 18007KT 04/M04 A3004 RMK A01 T00431041  RH  055%=      5-min Rain = 0
KWVS 180351Z 18007KT 04/M04 A3004 RMK A01 T00431041  RH  054%=      5-min Rain = 0
KWVS 180352Z 18006KT 04/M04 A3004 RMK A01 T00441040  RH  054%=      5-min Rain = 0
KWVS 180353Z 18006KT 04/M04 A3004 RMK A01 T00441039  RH  055%=      5-min Rain = 0
KWVS 180354Z 18006KT 04/M04 A3004 RMK A01 T00431040  RH  055%=      5-min Rain = 0
KWVS 180355Z 18006KT 04/M04 A3004 RMK A01 T00421040  RH  055%=      5-min Rain = 0
KWVS 180356Z 19005KT 04/M04 A3004 RMK A01 T00421040  RH  055%=      5-min Rain = 0
KWVS 180357Z 19006KT 04/M04 A3004 RMK A01 T00411041  RH  055%=      5-min Rain = 0
KWVS 180358Z 19006KT 04/M04 A3004 RMK A01 T00411041  RH  055%=      5-min Rain = 0
KWVS 180359Z 19006KT 04/M04 A3004 RMK A01 T00401041  RH  055%=      5-min Rain = 0
KWVS 180400Z 20005KT 04/M04 A3004 RMK A01 T00401041  RH  055%=      5-min Rain = 0
KWVS 180401Z 20005KT 04/M04 A3004 RMK A01 T00401041  RH  056%=      5-min Rain = 0
KWVS 180402Z 20005KT 04/M04 A3004 RMK A01 T00401041  RH  055%=      5-min Rain = 0
KWVS 180403Z 20005KT 04/M04 A3004 RMK A01 T00391042  RH  055%=      5-min Rain = 0
KWVS 180404Z 21005KT 04/M04 A3004 RMK A01 T00391043  RH  055%=      5-min Rain = 0
KWVS 180405Z 21005KT 04/M04 A3004 RMK A01 T00401044  RH  055%=      5-min Rain = 0
KWVS 180406Z 21004KT 04/M04 A3004 RMK A01 T00401044  RH  055%=      5-min Rain = 0
KWVS 180407Z 21004KT 04/M04 A3004 RMK A01 T00401043  RH  055%=      5-min Rain = 0
KWVS 180408Z 21004KT 04/M04 A3004 RMK A01 T00401044  RH  055%=      5-min Rain = 0
KWVS 180409Z 21004KT 04/M04 A3004 RMK A01 T00401044  RH  055%=      5-min Rain = 0
KWVS 180410Z 21004KT 04/M04 A3004 RMK A01 T00391044  RH  055%=      5-min Rain = 0
KWVS 180411Z 21004KT 04/M04 A3004 RMK A01 T00391044  RH  055%=      5-min Rain = 0
KWVS 180412Z 21004KT 04/M04 A3003 RMK A01 T00391044  RH  055%=      5-min Rain = 0
KWVS 180413Z 21004KT 04/M04 A3003 RMK A01 T00401044  RH  054%=      5-min Rain = 0
KWVS 180414Z 19003KT 04/M04 A3003 RMK A01 T00401044  RH  054%=      5-min Rain = 0
KWVS 180415Z 20003KT 04/M04 A3003 RMK A01 T00401044  RH  055%=      5-min Rain = 0
KWVS 180416Z 19004KT 04/M04 A3003 RMK A01 T00391044  RH  055%=      5-min Rain = 0
KWVS 180417Z 19004KT 04/M04 A3003 RMK A01 T00391044  RH  055%=      5-min Rain = 0
KWVS 180418Z 19004KT 04/M04 A3003 RMK A01 T00401044  RH  054%=      5-min Rain = 0
KWVS 180419Z 20004KT 04/M04 A3003 RMK A01 T00411044  RH  054%=      5-min Rain = 0
KWVS 180420Z 20004KT 04/M04 A3003 RMK A01 T00411044  RH  054%=      5-min Rain = 0
KWVS 180421Z 20004KT 04/M04 A3003 RMK A01 T00411044  RH  054%=      5-min Rain = 0
KWVS 180422Z 21004KT 04/M04 A3003 RMK A01 T00411044  RH  054%=      5-min Rain = 0
KWVS 180423Z 21004KT 04/M04 A3003 RMK A01 T00401044  RH  054%=      5-min Rain = 0
KWVS 180424Z 21004KT 04/M04 A3003 RMK A01 T00401043  RH  055%=      5-min Rain = 0
KWVS 180425Z 21004KT 04/M04 A3003 RMK A01 T00391043  RH  055%=      5-min Rain = 0
KWVS 180426Z 21004KT 04/M04 A3003 RMK A01 T00391043  RH  055%=      5-min Rain = 0
KWVS 180427Z 21004KT 04/M04 A3003 RMK A01 T00381043  RH  055%=      5-min Rain = 0
KWVS 180428Z 21004KT 04/M04 A3003 RMK A01 T00381043  RH  055%=      5-min Rain = 0
KWVS 180429Z 21004KT 04/M04 A3003 RMK A01 T00381043  RH  056%=      5-min Rain = 0
KWVS 180430Z 20004KT 04/M04 A3003 RMK A01 T00371043  RH  056%=      5-min Rain = 0
KWVS 180431Z 21004KT 04/M04 A3003 RMK A01 T00371043  RH  056%=      5-min Rain = 0
KWVS 180432Z 21004KT 04/M04 A3003 RMK A01 T00371043  RH  056%=      5-min Rain = 0
KWVS 180433Z 21005KT 04/M04 A3003 RMK A01 T00371043  RH  056%=      5-min Rain = 0
KWVS 180434Z 20005KT 04/M04 A3003 RMK A01 T00371043  RH  056%=      5-min Rain = 0
KWVS 180435Z 20005KT 04/M04 A3003 RMK A01 T00371043  RH  056%=      5-min Rain = 0
KWVS 180436Z 20004KT 04/M04 A3003 RMK A01 T00371043  RH  056%=      5-min Rain = 0
KWVS 180437Z 19004KT 04/M04 A3003 RMK A01 T00361043  RH  056%=      5-min Rain = 0
KWVS 180438Z 19005KT 04/M04 A3003 RMK A01 T00361043  RH  056%=      5-min Rain = 0
KWVS 180439Z 19005KT 04/M04 A3003 RMK A01 T00371042  RH  056%=      5-min Rain = 0
KWVS 180440Z 19006KT 04/M04 A3002 RMK A01 T00361041  RH  057%=      5-min Rain = 0
KWVS 180441Z 19006KT 03/M04 A3002 RMK A01 T00341041  RH  058%=      5-min Rain = 0
KWVS 180442Z 19006KT 03/M04 A3002 RMK A01 T00341041  RH  058%=      5-min Rain = 0
KWVS 180443Z 18005KT 03/M04 A3002 RMK A01 T00341041  RH  058%=      5-min Rain = 0
KWVS 180444Z 18006KT 03/M04 A3002 RMK A01 T00341041  RH  058%=      5-min Rain = 0
KWVS 180445Z 18006KT 04/M04 A3002 RMK A01 T00351041  RH  057%=      5-min Rain = 0
KWVS 180446Z 18006KT 04/M04 A3002 RMK A01 T00361042  RH  057%=      5-min Rain = 0
KWVS 180447Z 18006KT 04/M04 A3002 RMK A01 T00361042  RH  057%=      5-min Rain = 0
KWVS 180448Z 18006KT 04/M04 A3002 RMK A01 T00361042  RH  057%=      5-min Rain = 0
KWVS 180449Z 18006KT 04/M04 A3002 RMK A01 T00361041  RH  057%=      5-min Rain = 0
KWVS 180450Z 18006KT 04/M04 A3002 RMK A01 T00361041  RH  057%=      5-min Rain = 0
KWVS 180451Z 18006KT 04/M04 A3002 RMK A01 T00371042  RH  057%=      5-min Rain = 0
KWVS 180452Z 18006KT 04/M04 A3002 RMK A01 T00371041  RH  057%=      5-min Rain = 0
KWVS 180453Z 18005KT 04/M04 A3002 RMK A01 T00361041  RH  057%=      5-min Rain = 0
KWVS 180454Z 18005KT 04/M04 A3002 RMK A01 T00361041  RH  057%=      5-min Rain = 0
KWVS 180455Z 18005KT 04/M04 A3002 RMK A01 T00361042  RH  057%=      5-min Rain = 0
KWVS 180456Z 18005KT 04/M04 A3001 RMK A01 T00361042  RH  056%=      5-min Rain = 0
KWVS 180457Z 18004KT 04/M04 A3001 RMK A01 T00371043  RH  056%=      5-min Rain = 0
KWVS 180458Z 18004KT 04/M04 A3001 RMK A01 T00381043  RH  056%=      5-min Rain = 0
KWVS 180459Z 18004KT 04/M04 A3001 RMK A01 T00391043  RH  055%=      5-min Rain = 0
KWVS 180500Z 18004KT 04/M04 A3001 RMK A01 T00401043  RH  055%=      5-min Rain = 0
KWVS 180501Z 18004KT 04/M04 A3001 RMK A01 T00411043  RH  054%=      5-min Rain = 0
KWVS 180502Z 19005KT 04/M04 A3001 RMK A01 T00411044  RH  054%=      5-min Rain = 0
KWVS 180503Z 19005KT 04/M04 A3001 RMK A01 T00411044  RH  054%=      5-min Rain = 0
KWVS 180504Z 19005KT 04/M04 A3001 RMK A01 T00411044  RH  054%=      5-min Rain = 0
KWVS 180505Z 19005KT 04/M04 A3001 RMK A01 T00411044  RH  054%=      5-min Rain = 0
KWVS 180506Z 19005KT 04/M04 A3001 RMK A01 T00411043  RH  054%=      5-min Rain = 0
KWVS 180507Z 20005KT 04/M04 A3001 RMK A01 T00401043  RH  055%=      5-min Rain = 0
KWVS 180508Z 20005KT 04/M04 A3001 RMK A01 T00391043  RH  055%=      5-min Rain = 0
KWVS 180509Z 20004KT 04/M04 A3001 RMK A01 T00371043  RH  056%=      5-min Rain = 0
KWVS 180510Z 20005KT 04/M04 A3001 RMK A01 T00361043  RH  056%=      5-min Rain = 0
KWVS 180511Z 20006KT 04/M04 A3001 RMK A01 T00351043  RH  057%=      5-min Rain = 0
KWVS 180512Z 20006KT 03/M04 A3001 RMK A01 T00341042  RH  057%=      5-min Rain = 0
KWVS 180513Z 20007KT 03/M04 A3001 RMK A01 T00321042  RH  058%=      5-min Rain = 0
KWVS 180514Z 20007KT 03/M04 A3001 RMK A01 T00301042  RH  059%=      5-min Rain = 0
KWVS 180515Z 20007KT 03/M04 A3001 RMK A01 T00291041  RH  060%=      5-min Rain = 0
KWVS 180516Z 19006KT 03/M04 A3001 RMK A01 T00291041  RH  060%=      5-min Rain = 0
KWVS 180517Z 19006KT 03/M04 A3001 RMK A01 T00291041  RH  060%=      5-min Rain = 0
KWVS 180518Z 19006KT 03/M04 A3001 RMK A01 T00291040  RH  060%=      5-min Rain = 0
KWVS 180519Z 19005KT 03/M04 A30 RMK A01 T00291040  RH  060%=      5-min Rain = 0
KWVS 180520Z 18006KT 03/M04 A30 RMK A01 T00291041  RH  060%=      5-min Rain = 0
KWVS 180521Z 19006KT 03/M04 A30 RMK A01 T00291042  RH  059%=      5-min Rain = 0
KWVS 180522Z 19006KT 03/M04 A30 RMK A01 T00301042  RH  059%=      5-min Rain = 0
KWVS 180523Z 20006KT 03/M04 A3001 RMK A01 T00301042  RH  059%=      5-min Rain = 0
KWVS 180524Z 20006KT 03/M04 A3001 RMK A01 T00301042  RH  059%=      5-min Rain = 0
KWVS 180525Z 21007KT 03/M04 A3001 RMK A01 T00301041  RH  059%=      5-min Rain = 0
KWVS 180526Z 20007KT 03/M04 A30 RMK A01 T00291041  RH  060%=      5-min Rain = 0
KWVS 180527Z 20006KT 03/M04 A30 RMK A01 T00291041  RH  060%=      5-min Rain = 0
KWVS 180528Z 20007KT 03/M04 A30 RMK A01 T00291041  RH  060%=      5-min Rain = 0
KWVS 180529Z 19007KT 03/M04 A30 RMK A01 T00291041  RH  060%=      5-min Rain = 0
KWVS 180530Z 19006KT 03/M04 A30 RMK A01 T00291041  RH  060%=      5-min Rain = 0
KWVS 180531Z 19007KT 03/M04 A30 RMK A01 T00291041  RH  060%=      5-min Rain = 0
KWVS 180532Z 19006KT 03/M04 A30 RMK A01 T00291040  RH  061%=      5-min Rain = 0
KWVS 180533Z 19007KT 03/M04 A30 RMK A01 T00281040  RH  061%=      5-min Rain = 0
KWVS 180534Z 19007KT 03/M04 A30 RMK A01 T00271041  RH  061%=      5-min Rain = 0
KWVS 180535Z 20006KT 03/M04 A30 RMK A01 T00261041  RH  061%=      5-min Rain = 0
KWVS 180536Z 19007KT 03/M04 A30 RMK A01 T00261041  RH  061%=      5-min Rain = 0
KWVS 180537Z 20007KT 03/M04 A30 RMK A01 T00271041  RH  061%=      5-min Rain = 0
KWVS 180538Z 20008KT 03/M04 A30 RMK A01 T00271041  RH  061%=      5-min Rain = 0
KWVS 180539Z 20009KT 03/M04 A30 RMK A01 T00271041  RH  061%=      5-min Rain = 0
KWVS 180540Z 20008KT 03/M04 A30 RMK A01 T00271040  RH  061%=      5-min Rain = 0
KWVS 180541Z 20007KT 03/M04 A30 RMK A01 T00271040  RH  061%=      5-min Rain = 0
KWVS 180542Z 20007KT 03/M04 A30 RMK A01 T00281040  RH  061%=      5-min Rain = 0
KWVS 180543Z 20007KT 03/M04 A30 RMK A01 T00281040  RH  061%=      5-min Rain = 0
KWVS 180544Z 20006KT 03/M04 A30 RMK A01 T00281040  RH  061%=      5-min Rain = 0
KWVS 180545Z 20006KT 03/M04 A30 RMK A01 T00271040  RH  061%=      5-min Rain = 0
KWVS 180546Z 20006KT 03/M04 A30 RMK A01 T00261040  RH  062%=      5-min Rain = 0
KWVS 180547Z 20007KT 03/M04 A30 RMK A01 T00261041  RH  061%=      5-min Rain = 0
KWVS 180548Z 20007KT 03/M04 A30 RMK A01 T00261041  RH  061%=      5-min Rain = 0
KWVS 180549Z 20007KT 03/M04 A30 RMK A01 T00261041  RH  061%=      5-min Rain = 0
KWVS 180550Z 21008KT 03/M04 A30 RMK A01 T00251041  RH  062%=      5-min Rain = 0
KWVS 180551Z 21008KT 02/M04 A30 RMK A01 T00241041  RH  062%=      5-min Rain = 0
KWVS 180552Z 21009KT 03/M04 A30 RMK A01 T00251040  RH  062%=      5-min Rain = 0
KWVS 180553Z 21008KT 03/M04 A30 RMK A01 T00271040  RH  061%=      5-min Rain = 0
KWVS 180554Z 21008KT 03/M04 A30 RMK A01 T00281040  RH  061%=      5-min Rain = 0
KWVS 180555Z 21008KT 03/M04 A30 RMK A01 T00281040  RH  061%=      5-min Rain = 0
KWVS 180556Z 21009KT 03/M04 A30 RMK A01 T00271040  RH  062%=      5-min Rain = 0
KWVS 180557Z 21009KT 03/M04 A30 RMK A01 T00271039  RH  062%=      5-min Rain = 0
KWVS 180558Z 21009KT 03/M04 A30 RMK A01 T00261039  RH  062%=      5-min Rain = 0
KWVS 180559Z 22009KT 03/M04 A30 RMK A01 T00261039  RH  062%=      5-min Rain = 0

Page generated in 0.1952 seconds.